Time,TemperatureF,DewpointF,PressureIn,WindDirection,WindDirectionDegrees,WindSpeedMPH,WindSpeedGustMPH,Humidity,HourlyPrecipIn,Conditions,Clouds,dailyrainin,SoftwareType,DateUTC
2013-01-06 00:00:00,26.4,17.6,30.17,North,352,10.0,24.0,69,0.00,,CLR,0.00,VWS V13.01,2013-01-06 04:00:00,
2013-01-06 00:03:00,26.3,17.5,30.18,NNW,330,6.0,24.0,69,0.00,,CLR,0.00,VWS V13.01,2013-01-06 04:03:00,
2013-01-06 00:04:00,26.1,17.3,30.18,NW,326,14.0,20.0,69,0.00,,CLR,0.00,VWS V13.01,2013-01-06 04:04:00,
2013-01-06 00:05:00,26.1,17.3,30.18,NNW,333,22.0,26.0,69,0.00,,CLR,0.00,VWS V13.01,2013-01-06 04:05:00,
2013-01-06 00:08:00,26.0,17.2,30.18,NW,309,20.0,26.0,69,0.00,,CLR,0.00,VWS V13.01,2013-01-06 04:08:00,
2013-01-06 00:10:00,26.0,17.6,30.18,NNW,347,12.0,26.0,70,0.00,,CLR,0.00,VWS V13.01,2013-01-06 04:10:00,
2013-01-06 00:13:00,25.8,17.4,30.18,NNW,335,8.0,26.0,70,0.00,,CLR,0.00,VWS V13.01,2013-01-06 04:13:00,
2013-01-06 00:15:00,25.8,17.4,30.18,NNW,343,10.0,14.0,70,0.00,,CLR,0.00,VWS V13.01,2013-01-06 04:15:00,
2013-01-06 00:18:00,25.7,17.3,30.17,NW,323,12.0,24.0,70,0.00,,CLR,0.00,VWS V13.01,2013-01-06 04:18:00,
2013-01-06 00:20:00,25.7,17.3,30.17,North,10,14.0,22.0,70,0.00,,CLR,0.00,VWS V13.01,2013-01-06 04:20:00,
2013-01-06 00:21:00,25.6,17.5,30.17,NNW,340,20.0,22.0,71,0.00,,CLR,0.00,VWS V13.01,2013-01-06 04:21:00,
2013-01-06 00:23:00,25.6,17.5,30.17,NNW,332,10.0,34.0,71,0.00,,CLR,0.00,VWS V13.01,2013-01-06 04:23:00,
2013-01-06 00:25:00,25.6,17.5,30.17,NNW,343,14.0,34.0,71,0.00,,CLR,0.00,VWS V13.01,2013-01-06 04:25:00,
2013-01-06 00:26:00,25.6,17.5,30.17,NW,305,8.0,34.0,71,0.00,,CLR,0.00,VWS V13.01,2013-01-06 04:26:00,
2013-01-06 00:28:00,25.4,17.3,30.17,WNW,289,4.0,28.0,71,0.00,,CLR,0.00,VWS V13.01,2013-01-06 04:28:00,
2013-01-06 00:30:00,25.4,17.3,30.17,NW,322,10.0,38.0,71,0.00,,CLR,0.00,VWS V13.01,2013-01-06 04:30:00,
2013-01-06 00:31:00,25.4,17.3,30.18,NW,325,16.0,38.0,71,0.00,,CLR,0.00,VWS V13.01,2013-01-06 04:31:00,
2013-01-06 00:34:00,25.4,17.3,30.18,NNW,335,4.0,30.0,71,0.00,,CLR,0.00,VWS V13.01,2013-01-06 04:34:00,
2013-01-06 00:35:00,25.4,17.3,30.18,NNW,336,10.0,34.0,71,0.00,,CLR,0.00,VWS V13.01,2013-01-06 04:35:00,
2013-01-06 00:36:00,25.4,17.3,30.18,NNW,339,14.0,26.0,71,0.00,,CLR,0.00,VWS V13.01,2013-01-06 04:36:00,
2013-01-06 00:37:00,25.4,17.3,30.18,North,359,14.0,22.0,71,0.00,,CLR,0.00,VWS V13.01,2013-01-06 04:37:00,
2013-01-06 00:39:00,25.3,17.2,30.18,NNW,332,22.0,26.0,71,0.00,,CLR,0.00,VWS V13.01,2013-01-06 04:39:00,
2013-01-06 00:40:00,25.3,17.2,30.18,NW,319,14.0,26.0,71,0.00,,CLR,0.00,VWS V13.01,2013-01-06 04:40:00,
2013-01-06 00:41:00,25.3,17.2,30.18,NW,322,16.0,24.0,71,0.00,,CLR,0.00,VWS V13.01,2013-01-06 04:41:00,
2013-01-06 00:42:00,25.3,17.2,30.18,NW,312,14.0,22.0,71,0.00,,CLR,0.00,VWS V13.01,2013-01-06 04:42:00,
2013-01-06 00:44:00,25.3,17.5,30.18,NW,322,18.0,26.0,72,0.00,,CLR,0.00,VWS V13.01,2013-01-06 04:44:00,
2013-01-06 00:46:00,25.3,17.5,30.19,NNW,342,4.0,32.0,72,0.00,,CLR,0.00,VWS V13.01,2013-01-06 04:46:00,
2013-01-06 00:47:00,25.3,17.5,30.19,NNW,335,20.0,28.0,72,0.00,,CLR,0.00,VWS V13.01,2013-01-06 04:47:00,
2013-01-06 00:49:00,25.3,17.5,30.19,WNW,292,4.0,20.0,72,0.00,,CLR,0.00,VWS V13.01,2013-01-06 04:49:00,
2013-01-06 00:51:00,25.3,17.5,30.19,NNW,328,14.0,22.0,72,0.00,,CLR,0.00,VWS V13.01,2013-01-06 04:51:00,
2013-01-06 00:52:00,25.3,17.5,30.19,NNW,339,6.0,22.0,72,0.00,,CLR,0.00,VWS V13.01,2013-01-06 04:52:00,
2013-01-06 00:53:00,25.1,17.4,30.19,WNW,296,16.0,22.0,72,0.00,,CLR,0.00,VWS V13.01,2013-01-06 04:53:00,
2013-01-06 00:54:00,25.1,17.4,30.19,NW,320,18.0,22.0,72,0.00,,CLR,0.00,VWS V13.01,2013-01-06 04:54:00,
2013-01-06 00:56:00,25.1,17.4,30.19,NNW,339,14.0,24.0,72,0.00,,CLR,0.00,VWS V13.01,2013-01-06 04:56:00,
2013-01-06 00:57:00,25.1,17.4,30.19,NNW,342,10.0,24.0,72,0.00,,CLR,0.00,VWS V13.01,2013-01-06 04:57:00,
2013-01-06 00:58:00,25.1,17.4,30.19,North,349,10.0,22.0,72,0.00,,CLR,0.00,VWS V13.01,2013-01-06 04:58:00,
2013-01-06 01:00:00,21.8,14.8,30.21,NNW,346,6.0,22.0,74,0.00,,SCT055,0.00,VWS V14.01,2013-01-06 05:00:00,
2013-01-06 01:01:00,25.0,17.3,30.19,West,275,14.0,20.0,72,0.00,,CLR,0.00,VWS V13.01,2013-01-06 05:01:00,
2013-01-06 01:02:00,25.0,17.3,30.19,NNE,16,10.0,20.0,72,0.00,,CLR,0.00,VWS V13.01,2013-01-06 05:02:00,
2013-01-06 01:07:00,24.8,17.4,30.19,NW,312,14.0,20.0,73,0.00,,CLR,0.00,VWS V13.01,2013-01-06 05:07:00,
2013-01-06 01:08:00,24.8,17.4,30.19,NNW,330,22.0,22.0,73,0.00,,CLR,0.00,VWS V13.01,2013-01-06 05:08:00,
2013-01-06 01:12:00,24.8,17.4,30.19,NW,311,16.0,20.0,73,0.00,,CLR,0.00,VWS V13.01,2013-01-06 05:12:00,
2013-01-06 01:13:00,24.8,17.4,30.19,NW,306,16.0,22.0,73,0.00,,CLR,0.00,VWS V13.01,2013-01-06 05:13:00,
2013-01-06 01:17:00,24.7,17.3,30.19,North,6,12.0,22.0,73,0.00,,CLR,0.00,VWS V13.01,2013-01-06 05:17:00,
2013-01-06 01:18:00,24.7,17.3,30.19,NNW,330,22.0,32.0,73,0.00,,CLR,0.00,VWS V13.01,2013-01-06 05:18:00,
2013-01-06 01:22:00,24.4,17.0,30.19,NW,313,12.0,30.0,73,0.00,,CLR,0.00,VWS V13.01,2013-01-06 05:22:00,
2013-01-06 01:23:00,24.4,17.0,30.19,NNW,336,12.0,30.0,73,0.00,,CLR,0.00,VWS V13.01,2013-01-06 05:23:00,
2013-01-06 01:28:00,23.9,16.2,30.19,North,8,10.0,20.0,72,0.00,,CLR,0.00,VWS V13.01,2013-01-06 05:28:00,
2013-01-06 01:29:00,23.8,16.1,30.19,North,354,10.0,24.0,72,0.00,,CLR,0.00,VWS V13.01,2013-01-06 05:29:00,
2013-01-06 01:30:00,21.0,14.6,30.22,NNW,336,14.0,14.0,76,0.00,,SCT055,0.00,VWS V14.01,2013-01-06 05:30:00,
2013-01-06 01:33:00,23.3,15.6,30.20,North,0,10.0,20.0,72,0.00,,BKN022,0.00,VWS V13.01,2013-01-06 05:33:00,
2013-01-06 01:34:00,23.3,15.6,30.20,WNW,295,8.0,20.0,72,0.00,,BKN022,0.00,VWS V13.01,2013-01-06 05:34:00,
2013-01-06 01:38:00,22.9,15.2,30.20,North,359,4.0,22.0,72,0.00,,BKN022,0.00,VWS V13.01,2013-01-06 05:38:00,
2013-01-06 01:39:00,22.9,15.2,30.20,North,352,14.0,20.0,72,0.00,,BKN022,0.00,VWS V13.01,2013-01-06 05:39:00,
2013-01-06 01:43:00,22.5,15.2,30.20,NW,326,14.0,20.0,73,0.00,,BKN022,0.00,VWS V13.01,2013-01-06 05:43:00,
2013-01-06 01:44:00,22.4,15.1,30.20,NNW,328,10.0,20.0,73,0.00,,BKN022,0.00,VWS V13.01,2013-01-06 05:44:00,
2013-01-06 01:45:00,22.4,15.1,30.20,NW,308,16.0,16.0,73,0.00,,BKN022,0.00,VWS V13.01,2013-01-06 05:45:00,
2013-01-06 01:49:00,22.2,14.9,30.21,North,356,10.0,16.0,73,0.00,,BKN022,0.00,VWS V13.01,2013-01-06 05:49:00,
2013-01-06 01:50:00,22.2,14.9,30.21,NW,320,4.0,16.0,73,0.00,,BKN022,0.00,VWS V13.01,2013-01-06 05:50:00,
2013-01-06 01:54:00,21.9,14.9,30.21,NW,320,10.0,22.0,74,0.00,,BKN022,0.00,VWS V13.01,2013-01-06 05:54:00,
2013-01-06 01:55:00,21.9,14.9,30.21,North,0,10.0,22.0,74,0.00,,BKN022,0.00,VWS V13.01,2013-01-06 05:55:00,
2013-01-06 01:59:00,21.8,14.8,30.21,NNW,343,12.0,12.0,74,0.00,,BKN022,0.00,VWS V13.01,2013-01-06 05:59:00,
2013-01-06 02:00:00,21.8,14.8,30.21,NNW,330,16.0,18.0,74,0.00,,BKN022,0.00,VWS V13.01,2013-01-06 06:00:00,
2013-01-06 02:04:00,21.6,14.9,30.21,NW,315,12.0,22.0,75,0.00,,BKN022,0.00,VWS V13.01,2013-01-06 06:04:00,
2013-01-06 02:05:00,21.6,14.9,30.21,NNW,329,12.0,22.0,75,0.00,,BKN022,0.00,VWS V13.01,2013-01-06 06:05:00,
2013-01-06 02:06:00,21.6,14.9,30.21,NNW,346,14.0,22.0,75,0.00,,BKN022,0.00,VWS V13.01,2013-01-06 06:06:00,
2013-01-06 02:10:00,21.4,14.7,30.21,NNW,335,6.0,14.0,75,0.00,,BKN022,0.00,VWS V13.01,2013-01-06 06:10:00,
2013-01-06 02:11:00,21.4,14.7,30.21,North,353,12.0,20.0,75,0.00,,BKN022,0.00,VWS V13.01,2013-01-06 06:11:00,
2013-01-06 02:15:00,21.3,14.6,30.21,NNW,342,22.0,22.0,75,0.00,,BKN022,0.00,VWS V13.01,2013-01-06 06:15:00,
2013-01-06 02:16:00,21.3,14.6,30.22,North,353,12.0,22.0,75,0.00,,BKN022,0.00,VWS V13.01,2013-01-06 06:16:00,
2013-01-06 02:20:00,21.3,14.6,30.22,NNW,346,6.0,14.0,75,0.00,,BKN022,0.00,VWS V13.01,2013-01-06 06:20:00,
2013-01-06 02:21:00,21.3,14.6,30.22,North,6,10.0,14.0,75,0.00,,BKN022,0.00,VWS V13.01,2013-01-06 06:21:00,
2013-01-06 02:25:00,21.1,14.4,30.22,NW,318,22.0,22.0,75,0.00,,BKN022,0.00,VWS V13.01,2013-01-06 06:25:00,
2013-01-06 02:26:00,21.1,14.4,30.22,NNW,340,12.0,22.0,75,0.00,,BKN022,0.00,VWS V13.01,2013-01-06 06:26:00,
2013-01-06 02:27:00,21.1,14.4,30.22,NNW,333,10.0,22.0,75,0.00,,BKN022,0.00,VWS V13.01,2013-01-06 06:27:00,
2013-01-06 02:30:00,21.1,14.7,30.22,NW,325,6.0,6.0,76,0.00,,BKN022,0.00,VWS V13.01,2013-01-06 06:30:00,
2013-01-06 02:31:00,21.1,14.7,30.22,NW,323,12.0,12.0,76,0.00,,BKN022,0.00,VWS V13.01,2013-01-06 06:31:00,
2013-01-06 02:32:00,21.0,14.6,30.22,NW,316,8.0,14.0,76,0.00,,CLR,0.00,VWS V13.01,2013-01-06 06:32:00,
2013-01-06 02:36:00,21.0,14.6,30.22,NNW,335,4.0,6.0,76,0.00,,CLR,0.00,VWS V13.01,2013-01-06 06:36:00,
2013-01-06 02:37:00,21.0,14.6,30.22,NW,316,22.0,22.0,76,0.00,,CLR,0.00,VWS V13.01,2013-01-06 06:37:00,
2013-01-06 02:41:00,21.0,14.6,30.22,NNW,339,2.0,2.0,76,0.00,,CLR,0.00,VWS V13.01,2013-01-06 06:41:00,
2013-01-06 02:43:00,20.8,14.4,30.22,NNW,330,0.0,10.0,76,0.00,,CLR,0.00,VWS V13.01,2013-01-06 06:43:00,
2013-01-06 02:46:00,20.8,14.4,30.23,NW,319,8.0,12.0,76,0.00,,CLR,0.00,VWS V13.01,2013-01-06 06:46:00,
2013-01-06 02:47:00,20.8,14.4,30.23,NNW,333,2.0,14.0,76,0.00,,CLR,0.00,VWS V13.01,2013-01-06 06:47:00,
2013-01-06 02:49:00,20.8,14.7,30.23,North,0,10.0,10.0,77,0.00,,CLR,0.00,VWS V13.01,2013-01-06 06:49:00,
2013-01-06 02:51:00,20.8,14.7,30.23,NNW,333,0.0,10.0,77,0.00,,CLR,0.00,VWS V13.01,2013-01-06 06:51:00,
2013-01-06 02:52:00,20.8,14.7,30.23,NW,318,12.0,12.0,77,0.00,,BKN017,0.00,VWS V13.01,2013-01-06 06:52:00,
2013-01-06 02:54:00,20.8,14.7,30.23,NNW,342,0.0,16.0,77,0.00,,BKN017,0.00,VWS V13.01,2013-01-06 06:54:00,
2013-01-06 02:56:00,20.8,14.7,30.23,NW,309,4.0,14.0,77,0.00,,BKN017,0.00,VWS V13.01,2013-01-06 06:56:00,
2013-01-06 02:57:00,20.8,14.7,30.23,NW,319,8.0,14.0,77,0.00,,BKN017,0.00,VWS V13.01,2013-01-06 06:57:00,
2013-01-06 02:58:00,20.8,14.7,30.23,NNW,333,16.0,16.0,77,0.00,,BKN017,0.00,VWS V13.01,2013-01-06 06:58:00,
2013-01-06 03:00:00,20.8,14.7,30.23,NW,325,4.0,16.0,77,0.00,,BKN017,0.00,VWS V13.01,2013-01-06 07:00:00,
2013-01-06 03:01:00,20.8,14.7,30.22,NW,316,0.0,12.0,77,0.00,,BKN017,0.00,VWS V13.01,2013-01-06 07:01:00,
2013-01-06 03:02:00,20.8,14.7,30.22,NW,326,8.0,12.0,77,0.00,,BKN017,0.00,VWS V13.01,2013-01-06 07:02:00,
2013-01-06 03:03:00,20.8,14.7,30.22,NW,320,8.0,12.0,77,0.00,,BKN017,0.00,VWS V13.01,2013-01-06 07:03:00,
2013-01-06 03:05:00,20.8,14.7,30.22,NNW,335,0.0,14.0,77,0.00,,BKN017,0.00,VWS V13.01,2013-01-06 07:05:00,
2013-01-06 03:06:00,20.8,14.7,30.22,WSW,241,8.0,16.0,77,0.00,,BKN017,0.00,VWS V13.01,2013-01-06 07:06:00,
2013-01-06 03:07:00,20.8,14.7,30.22,WNW,288,4.0,16.0,77,0.00,,BKN017,0.00,VWS V13.01,2013-01-06 07:07:00,
2013-01-06 03:08:00,20.8,14.7,30.22,North,350,12.0,16.0,77,0.00,,BKN017,0.00,VWS V13.01,2013-01-06 07:08:00,
2013-01-06 03:10:00,20.8,14.7,30.22,WNW,289,2.0,12.0,77,0.00,,BKN017,0.00,VWS V13.01,2013-01-06 07:10:00,
2013-01-06 03:12:00,20.8,14.7,30.22,NW,304,8.0,12.0,77,0.00,,BKN017,0.00,VWS V13.01,2013-01-06 07:12:00,
2013-01-06 03:13:00,20.8,14.7,30.22,NW,311,4.0,14.0,77,0.00,,BKN017,0.00,VWS V13.01,2013-01-06 07:13:00,
2013-01-06 03:15:00,20.8,14.7,30.22,West,281,0.0,10.0,77,0.00,,BKN017,0.00,VWS V13.01,2013-01-06 07:15:00,
2013-01-06 03:17:00,20.8,14.7,30.23,West,281,0.0,10.0,77,0.00,,BKN017,0.00,VWS V13.01,2013-01-06 07:17:00,
2013-01-06 03:18:00,20.8,14.7,30.23,NW,304,4.0,8.0,77,0.00,,BKN017,0.00,VWS V13.01,2013-01-06 07:18:00,
2013-01-06 03:21:00,20.8,14.7,30.23,NNW,337,0.0,2.0,77,0.00,,BKN017,0.00,VWS V13.01,2013-01-06 07:21:00,
2013-01-06 03:22:00,20.8,14.7,30.23,NNW,337,0.0,2.0,77,0.00,,BKN017,0.00,VWS V13.01,2013-01-06 07:22:00,
2013-01-06 03:24:00,20.8,14.7,30.23,NNW,336,0.0,0.0,77,0.00,,BKN017,0.00,VWS V13.01,2013-01-06 07:24:00,
2013-01-06 03:26:00,20.8,15.0,30.23,NNW,332,10.0,14.0,78,0.00,,BKN017,0.00,VWS V13.01,2013-01-06 07:26:00,
2013-01-06 03:27:00,20.8,15.0,30.23,North,353,6.0,14.0,78,0.00,,BKN017,0.00,VWS V13.01,2013-01-06 07:27:00,
2013-01-06 03:29:00,20.8,15.0,30.23,WNW,296,2.0,12.0,78,0.00,,BKN017,0.00,VWS V13.01,2013-01-06 07:29:00,
2013-01-06 03:30:00,19.9,14.2,30.25,NW,311,0.0,2.0,78,0.00,,SCT055,0.00,VWS V14.01,2013-01-06 07:30:00,
2013-01-06 03:31:00,20.8,15.0,30.23,NW,326,10.0,16.0,78,0.00,,BKN017,0.00,VWS V13.01,2013-01-06 07:31:00,
2013-01-06 03:32:00,20.8,15.0,30.23,WNW,302,2.0,16.0,78,0.00,,OVC017,0.00,VWS V13.01,2013-01-06 07:32:00,
2013-01-06 03:34:00,20.8,15.0,30.23,NW,316,12.0,18.0,78,0.00,,OVC017,0.00,VWS V13.01,2013-01-06 07:34:00,
2013-01-06 03:35:00,20.8,15.0,30.23,NW,308,0.0,18.0,78,0.00,,OVC017,0.00,VWS V13.01,2013-01-06 07:35:00,
2013-01-06 03:36:00,20.8,15.0,30.23,NW,308,2.0,8.0,78,0.00,,OVC017,0.00,VWS V13.01,2013-01-06 07:36:00,
2013-01-06 03:37:00,20.8,15.0,30.23,NW,309,4.0,8.0,78,0.00,,OVC017,0.00,VWS V13.01,2013-01-06 07:37:00,
2013-01-06 03:39:00,20.8,15.0,30.23,NW,325,6.0,10.0,78,0.00,,OVC017,0.00,VWS V13.01,2013-01-06 07:39:00,
2013-01-06 03:40:00,20.8,15.0,30.23,NNW,328,2.0,12.0,78,0.00,,OVC017,0.00,VWS V13.01,2013-01-06 07:40:00,
2013-01-06 03:41:00,20.8,15.0,30.23,NW,325,6.0,6.0,78,0.00,,OVC017,0.00,VWS V13.01,2013-01-06 07:41:00,
2013-01-06 03:43:00,20.8,15.0,30.23,North,0,0.0,14.0,78,0.00,,OVC017,0.00,VWS V13.01,2013-01-06 07:43:00,
2013-01-06 03:44:00,20.8,15.0,30.23,North,4,6.0,12.0,78,0.00,,OVC017,0.00,VWS V13.01,2013-01-06 07:44:00,
2013-01-06 03:45:00,20.8,15.0,30.23,NNW,339,12.0,18.0,78,0.00,,OVC017,0.00,VWS V13.01,2013-01-06 07:45:00,
2013-01-06 03:46:00,20.8,15.0,30.24,NNW,333,8.0,18.0,78,0.00,,OVC017,0.00,VWS V13.01,2013-01-06 07:46:00,
2013-01-06 03:48:00,20.8,15.0,30.24,NNW,328,6.0,10.0,78,0.00,,OVC017,0.00,VWS V13.01,2013-01-06 07:48:00,
2013-01-06 03:49:00,20.6,14.8,30.24,NNW,329,2.0,6.0,78,0.00,,OVC017,0.00,VWS V13.01,2013-01-06 07:49:00,
2013-01-06 03:50:00,20.8,15.0,30.24,North,0,4.0,8.0,78,0.00,,OVC017,0.00,VWS V13.01,2013-01-06 07:50:00,
2013-01-06 03:51:00,20.8,15.0,30.24,North,0,0.0,8.0,78,0.00,,OVC017,0.00,VWS V13.01,2013-01-06 07:51:00,
2013-01-06 03:53:00,20.6,14.8,30.24,West,277,2.0,8.0,78,0.00,,FEW015,0.00,VWS V13.01,2013-01-06 07:53:00,
2013-01-06 03:54:00,20.6,14.8,30.24,WNW,295,12.0,12.0,78,0.00,,FEW015,0.00,VWS V13.01,2013-01-06 07:54:00,
2013-01-06 03:56:00,20.6,14.8,30.24,NNW,330,10.0,16.0,78,0.00,,FEW015,0.00,VWS V13.01,2013-01-06 07:56:00,
2013-01-06 03:57:00,20.6,14.8,30.24,NNW,328,4.0,14.0,78,0.00,,FEW015,0.00,VWS V13.01,2013-01-06 07:57:00,
2013-01-06 03:59:00,20.6,14.8,30.24,NNW,329,6.0,10.0,78,0.00,,FEW015,0.00,VWS V13.01,2013-01-06 07:59:00,
2013-01-06 04:00:00,18.9,13.5,30.26,NW,306,0.0,2.0,79,0.00,,SCT055,0.00,VWS V14.01,2013-01-06 08:00:00,
2013-01-06 04:01:00,20.5,14.7,30.24,NNW,337,2.0,6.0,78,0.00,,FEW015,0.00,VWS V13.01,2013-01-06 08:01:00,
2013-01-06 04:02:00,20.5,14.7,30.24,NW,325,2.0,6.0,78,0.00,,FEW015,0.00,VWS V13.01,2013-01-06 08:02:00,
2013-01-06 04:04:00,20.5,14.7,30.24,NNE,16,6.0,20.0,78,0.00,,FEW015,0.00,VWS V13.01,2013-01-06 08:04:00,
2013-01-06 04:06:00,20.5,14.7,30.24,NNW,337,0.0,10.0,78,0.00,,FEW015,0.00,VWS V13.01,2013-01-06 08:06:00,
2013-01-06 04:07:00,20.3,14.6,30.24,NNW,336,0.0,6.0,78,0.00,,FEW015,0.00,VWS V13.01,2013-01-06 08:07:00,
2013-01-06 04:10:00,20.3,14.6,30.24,North,357,0.0,6.0,78,0.00,,FEW015,0.00,VWS V13.01,2013-01-06 08:10:00,
2013-01-06 04:12:00,20.2,14.4,30.24,NNW,343,0.0,14.0,78,0.00,,FEW015,0.00,VWS V13.01,2013-01-06 08:12:00,
2013-01-06 04:13:00,20.2,14.4,30.24,NNW,344,0.0,4.0,78,0.00,,FEW015,0.00,VWS V13.01,2013-01-06 08:13:00,
2013-01-06 04:15:00,20.2,14.4,30.24,NNW,343,0.0,0.0,78,0.00,,FEW015,0.00,VWS V13.01,2013-01-06 08:15:00,
2013-01-06 04:18:00,20.2,14.4,30.25,NNW,328,0.0,4.0,78,0.00,,FEW015,0.00,VWS V13.01,2013-01-06 08:18:00,
2013-01-06 04:20:00,20.0,14.3,30.25,WNW,295,2.0,6.0,78,0.00,,FEW015,0.00,VWS V13.01,2013-01-06 08:20:00,
2013-01-06 04:23:00,20.0,14.3,30.25,NW,325,6.0,10.0,78,0.00,,FEW015,0.00,VWS V13.01,2013-01-06 08:23:00,
2013-01-06 04:25:00,19.9,14.2,30.25,WNW,285,2.0,6.0,78,0.00,,FEW015,0.00,VWS V13.01,2013-01-06 08:25:00,
2013-01-06 04:26:00,20.0,14.3,30.25,WNW,285,0.0,6.0,78,0.00,,FEW015,0.00,VWS V13.01,2013-01-06 08:26:00,
2013-01-06 04:28:00,19.9,14.2,30.25,WNW,289,2.0,8.0,78,0.00,,FEW015,0.00,VWS V13.01,2013-01-06 08:28:00,
2013-01-06 04:30:00,19.9,14.2,30.25,NW,311,0.0,6.0,78,0.00,,FEW015,0.00,VWS V13.01,2013-01-06 08:30:00,
2013-01-06 04:31:00,19.9,14.2,30.25,NW,311,2.0,2.0,78,0.00,,FEW015,0.00,VWS V13.01,2013-01-06 08:31:00,
2013-01-06 04:33:00,19.9,14.2,30.25,NW,311,0.0,2.0,78,0.00,,FEW015,0.00,VWS V13.01,2013-01-06 08:33:00,
2013-01-06 04:35:00,19.7,14.0,30.25,WNW,301,4.0,4.0,78,0.00,,FEW015,0.00,VWS V13.01,2013-01-06 08:35:00,
2013-01-06 04:36:00,19.7,14.0,30.25,WNW,301,2.0,4.0,78,0.00,,FEW015,0.00,VWS V13.01,2013-01-06 08:36:00,
2013-01-06 04:39:00,19.5,14.1,30.25,NNW,328,4.0,10.0,79,0.00,,FEW015,0.00,VWS V13.01,2013-01-06 08:39:00,
2013-01-06 04:40:00,19.5,14.1,30.25,NNW,328,4.0,6.0,79,0.00,,FEW015,0.00,VWS V13.01,2013-01-06 08:40:00,
2013-01-06 04:41:00,19.4,14.0,30.25,NW,315,0.0,6.0,79,0.00,,FEW015,0.00,VWS V13.01,2013-01-06 08:41:00,
2013-01-06 04:42:00,19.4,14.0,30.25,NW,313,0.0,6.0,79,0.00,,FEW015,0.00,VWS V13.01,2013-01-06 08:42:00,
2013-01-06 04:44:00,19.4,14.0,30.25,NW,325,4.0,6.0,79,0.00,,FEW015,0.00,VWS V13.01,2013-01-06 08:44:00,
2013-01-06 04:46:00,19.2,13.8,30.25,NW,315,0.0,6.0,79,0.00,,FEW015,0.00,VWS V13.01,2013-01-06 08:46:00,
2013-01-06 04:47:00,19.2,13.8,30.25,NW,316,2.0,6.0,79,0.00,,FEW015,0.00,VWS V13.01,2013-01-06 08:47:00,
2013-01-06 04:49:00,19.2,13.8,30.25,WNW,287,0.0,8.0,79,0.00,,FEW015,0.00,VWS V13.01,2013-01-06 08:49:00,
2013-01-06 04:51:00,19.2,13.8,30.25,WNW,287,0.0,0.0,79,0.00,,FEW015,0.00,VWS V13.01,2013-01-06 08:51:00,
2013-01-06 04:52:00,19.2,13.8,30.25,WNW,287,0.0,0.0,79,0.00,,CLR,0.00,VWS V13.01,2013-01-06 08:52:00,
2013-01-06 04:54:00,19.2,13.8,30.25,NNW,328,0.0,8.0,79,0.00,,CLR,0.00,VWS V13.01,2013-01-06 08:54:00,
2013-01-06 04:56:00,19.1,13.7,30.25,NNW,328,0.0,0.0,79,0.00,,CLR,0.00,VWS V13.01,2013-01-06 08:56:00,
2013-01-06 04:57:00,19.1,13.7,30.25,NW,306,2.0,4.0,79,0.00,,CLR,0.00,VWS V13.01,2013-01-06 08:57:00,
2013-01-06 04:58:00,19.1,13.7,30.25,NW,306,0.0,4.0,79,0.00,,CLR,0.00,VWS V13.01,2013-01-06 08:58:00,
2013-01-06 04:59:00,19.1,13.7,30.25,NW,306,0.0,2.0,79,0.00,,CLR,0.00,VWS V13.01,2013-01-06 08:59:00,
2013-01-06 05:00:00,17.8,12.7,30.27,NNW,329,0.0,6.0,80,0.00,,SCT055,0.00,VWS V14.01,2013-01-06 09:00:00,
2013-01-06 05:01:00,18.9,13.5,30.26,NW,306,2.0,2.0,79,0.00,,CLR,0.00,VWS V13.01,2013-01-06 09:01:00,
2013-01-06 05:03:00,18.9,13.5,30.26,NW,306,0.0,2.0,79,0.00,,CLR,0.00,VWS V13.01,2013-01-06 09:03:00,
2013-01-06 05:05:00,18.9,13.5,30.26,NW,306,0.0,6.0,79,0.00,,CLR,0.00,VWS V13.01,2013-01-06 09:05:00,
2013-01-06 05:06:00,18.8,13.4,30.26,NW,308,0.0,0.0,79,0.00,,CLR,0.00,VWS V13.01,2013-01-06 09:06:00,
2013-01-06 05:08:00,18.8,13.4,30.26,NW,308,0.0,0.0,79,0.00,,CLR,0.00,VWS V13.01,2013-01-06 09:08:00,
2013-01-06 05:10:00,18.8,13.4,30.26,NW,305,2.0,4.0,79,0.00,,CLR,0.00,VWS V13.01,2013-01-06 09:10:00,
2013-01-06 05:11:00,18.8,13.7,30.26,WNW,299,4.0,6.0,80,0.00,,CLR,0.00,VWS V13.01,2013-01-06 09:11:00,
2013-01-06 05:13:00,18.8,13.7,30.26,WNW,289,10.0,14.0,80,0.00,,CLR,0.00,VWS V13.01,2013-01-06 09:13:00,
2013-01-06 05:15:00,18.6,13.5,30.26,West,277,2.0,8.0,80,0.00,,CLR,0.00,VWS V13.01,2013-01-06 09:15:00,
2013-01-06 05:16:00,18.6,13.5,30.26,West,280,6.0,16.0,80,0.00,,CLR,0.00,VWS V13.01,2013-01-06 09:16:00,
2013-01-06 05:19:00,18.6,13.5,30.26,NNW,336,12.0,12.0,80,0.00,,CLR,0.00,VWS V13.01,2013-01-06 09:19:00,
2013-01-06 05:21:00,18.6,13.5,30.26,NNW,330,6.0,14.0,80,0.00,,CLR,0.00,VWS V13.01,2013-01-06 09:21:00,
2013-01-06 05:22:00,18.6,13.5,30.26,NW,309,2.0,14.0,80,0.00,,CLR,0.00,VWS V13.01,2013-01-06 09:22:00,
2013-01-06 05:24:00,18.6,13.5,30.26,NW,311,6.0,6.0,80,0.00,,CLR,0.00,VWS V13.01,2013-01-06 09:24:00,
2013-01-06 05:25:00,18.6,13.5,30.26,NW,312,4.0,6.0,80,0.00,,CLR,0.00,VWS V13.01,2013-01-06 09:25:00,
2013-01-06 05:26:00,18.4,13.3,30.26,NW,312,0.0,6.0,80,0.00,,CLR,0.00,VWS V13.01,2013-01-06 09:26:00,
2013-01-06 05:27:00,18.4,13.3,30.26,NW,312,2.0,6.0,80,0.00,,CLR,0.00,VWS V13.01,2013-01-06 09:27:00,
2013-01-06 05:29:00,18.4,13.3,30.26,NW,312,4.0,4.0,80,0.00,,CLR,0.00,VWS V13.01,2013-01-06 09:29:00,
2013-01-06 05:30:00,17.3,12.2,30.27,NNW,329,0.0,4.0,80,0.00,,SCT055,0.00,VWS V14.01,2013-01-06 09:30:00,
2013-01-06 05:31:00,18.3,13.2,30.27,NW,306,0.0,6.0,80,0.00,,CLR,0.00,VWS V13.01,2013-01-06 09:31:00,
2013-01-06 05:34:00,18.4,13.3,30.27,NW,306,0.0,0.0,80,0.00,,CLR,0.00,VWS V13.01,2013-01-06 09:34:00,
2013-01-06 05:36:00,18.3,13.2,30.27,NW,320,4.0,10.0,80,0.00,,CLR,0.00,VWS V13.01,2013-01-06 09:36:00,
2013-01-06 05:37:00,18.3,13.2,30.27,NNW,328,2.0,8.0,80,0.00,,CLR,0.00,VWS V13.01,2013-01-06 09:37:00,
2013-01-06 05:39:00,18.1,13.0,30.27,NNW,328,0.0,6.0,80,0.00,,CLR,0.00,VWS V13.01,2013-01-06 09:39:00,
2013-01-06 05:41:00,18.1,13.0,30.27,WNW,292,0.0,12.0,80,0.00,,CLR,0.00,VWS V13.01,2013-01-06 09:41:00,
2013-01-06 05:43:00,18.1,13.0,30.27,WNW,292,2.0,6.0,80,0.00,,CLR,0.00,VWS V13.01,2013-01-06 09:43:00,
2013-01-06 05:44:00,18.1,13.0,30.27,WNW,292,0.0,6.0,80,0.00,,CLR,0.00,VWS V13.01,2013-01-06 09:44:00,
2013-01-06 05:45:00,18.1,13.0,30.27,WNW,292,2.0,2.0,80,0.00,,CLR,0.00,VWS V13.01,2013-01-06 09:45:00,
2013-01-06 05:46:00,18.0,12.9,30.27,WNW,292,0.0,4.0,80,0.00,,CLR,0.00,VWS V13.01,2013-01-06 09:46:00,
2013-01-06 05:48:00,18.0,12.9,30.27,NNW,346,10.0,10.0,80,0.00,,CLR,0.00,VWS V13.01,2013-01-06 09:48:00,
2013-01-06 05:49:00,18.1,13.0,30.27,NNW,329,2.0,12.0,80,0.00,,CLR,0.00,VWS V13.01,2013-01-06 09:49:00,
2013-01-06 05:50:00,18.0,12.9,30.27,NNW,329,0.0,6.0,80,0.00,,CLR,0.00,VWS V13.01,2013-01-06 09:50:00,
2013-01-06 05:51:00,18.0,12.9,30.27,NNW,329,0.0,4.0,80,0.00,,CLR,0.00,VWS V13.01,2013-01-06 09:51:00,
2013-01-06 05:53:00,18.0,12.9,30.27,NNW,329,0.0,4.0,80,0.00,,CLR,0.00,VWS V13.01,2013-01-06 09:53:00,
2013-01-06 05:54:00,18.0,12.9,30.27,NNW,329,0.0,4.0,80,0.00,,CLR,0.00,VWS V13.01,2013-01-06 09:54:00,
2013-01-06 05:55:00,18.0,12.9,30.27,NNW,328,0.0,4.0,80,0.00,,CLR,0.00,VWS V13.01,2013-01-06 09:55:00,
2013-01-06 05:56:00,18.0,12.9,30.27,NNW,329,2.0,2.0,80,0.00,,CLR,0.00,VWS V13.01,2013-01-06 09:56:00,
2013-01-06 05:58:00,18.0,12.9,30.27,NNW,329,0.0,4.0,80,0.00,,CLR,0.00,VWS V13.01,2013-01-06 09:58:00,
2013-01-06 05:59:00,17.8,12.7,30.27,NNW,329,4.0,6.0,80,0.00,,CLR,0.00,VWS V13.01,2013-01-06 09:59:00,
2013-01-06 06:00:00,17.8,12.7,30.27,NNW,329,4.0,6.0,80,0.00,,CLR,0.00,VWS V13.01,2013-01-06 10:00:00,
2013-01-06 06:02:00,17.8,12.7,30.27,NNW,329,0.0,4.0,80,0.00,,CLR,0.00,VWS V13.01,2013-01-06 10:02:00,
2013-01-06 06:03:00,17.8,12.7,30.27,NNW,339,2.0,2.0,80,0.00,,CLR,0.00,VWS V13.01,2013-01-06 10:03:00,
2013-01-06 06:05:00,17.7,12.6,30.27,NNW,328,0.0,12.0,80,0.00,,CLR,0.00,VWS V13.01,2013-01-06 10:05:00,
2013-01-06 06:06:00,17.8,12.7,30.27,NW,323,0.0,12.0,80,0.00,,CLR,0.00,VWS V13.01,2013-01-06 10:06:00,
2013-01-06 06:07:00,17.8,12.7,30.27,NNW,328,0.0,4.0,80,0.00,,CLR,0.00,VWS V13.01,2013-01-06 10:07:00,
2013-01-06 06:09:00,17.7,12.6,30.27,NNW,328,0.0,0.0,80,0.00,,CLR,0.00,VWS V13.01,2013-01-06 10:09:00,
2013-01-06 06:10:00,17.7,12.6,30.27,NNW,328,0.0,0.0,80,0.00,,CLR,0.00,VWS V13.01,2013-01-06 10:10:00,
2013-01-06 06:11:00,17.7,12.6,30.27,NNW,328,0.0,0.0,80,0.00,,CLR,0.00,VWS V13.01,2013-01-06 10:11:00,
2013-01-06 06:12:00,17.7,12.6,30.27,NNW,328,0.0,0.0,80,0.00,,CLR,0.00,VWS V13.01,2013-01-06 10:12:00,
2013-01-06 06:14:00,17.7,12.6,30.27,NNW,328,0.0,6.0,80,0.00,,CLR,0.00,VWS V13.01,2013-01-06 10:14:00,
2013-01-06 06:15:00,17.7,12.6,30.27,NNW,328,2.0,2.0,80,0.00,,CLR,0.00,VWS V13.01,2013-01-06 10:15:00,
2013-01-06 06:16:00,17.7,12.6,30.27,NNW,328,4.0,4.0,80,0.00,,CLR,0.00,VWS V13.01,2013-01-06 10:16:00,
2013-01-06 06:17:00,17.5,12.4,30.27,NNW,330,2.0,6.0,80,0.00,,CLR,0.00,VWS V13.01,2013-01-06 10:17:00,
2013-01-06 06:19:00,17.5,12.4,30.27,NNW,329,0.0,6.0,80,0.00,,CLR,0.00,VWS V13.01,2013-01-06 10:19:00,
2013-01-06 06:21:00,17.5,12.4,30.27,NNW,330,0.0,4.0,80,0.00,,CLR,0.00,VWS V13.01,2013-01-06 10:21:00,
2013-01-06 06:22:00,17.3,12.2,30.27,NNW,329,2.0,4.0,80,0.00,,CLR,0.00,VWS V13.01,2013-01-06 10:22:00,
2013-01-06 06:24:00,17.5,12.4,30.27,NNW,329,0.0,6.0,80,0.00,,CLR,0.00,VWS V13.01,2013-01-06 10:24:00,
2013-01-06 06:26:00,17.5,12.4,30.27,NNW,329,0.0,0.0,80,0.00,,CLR,0.00,VWS V13.01,2013-01-06 10:26:00,
2013-01-06 06:27:00,17.3,12.2,30.27,NNW,330,4.0,4.0,80,0.00,,CLR,0.00,VWS V13.01,2013-01-06 10:27:00,
2013-01-06 06:30:00,17.3,12.2,30.27,NNW,329,0.0,2.0,80,0.00,,CLR,0.00,VWS V13.01,2013-01-06 10:30:00,
2013-01-06 06:31:00,17.3,12.2,30.27,NNW,329,0.0,4.0,80,0.00,,CLR,0.00,VWS V13.01,2013-01-06 10:31:00,
2013-01-06 06:32:00,17.3,12.2,30.27,NNW,329,0.0,4.0,80,0.00,,CLR,0.00,VWS V13.01,2013-01-06 10:32:00,
2013-01-06 06:33:00,17.2,12.1,30.27,NNW,330,0.0,0.0,80,0.00,,CLR,0.00,VWS V13.01,2013-01-06 10:33:00,
2013-01-06 06:35:00,17.2,12.1,30.27,NNW,330,0.0,0.0,80,0.00,,CLR,0.00,VWS V13.01,2013-01-06 10:35:00,
2013-01-06 06:36:00,17.2,12.1,30.27,NNW,330,0.0,0.0,80,0.00,,CLR,0.00,VWS V13.01,2013-01-06 10:36:00,
2013-01-06 06:37:00,17.2,12.1,30.27,NNW,329,0.0,0.0,80,0.00,,CLR,0.00,VWS V13.01,2013-01-06 10:37:00,
2013-01-06 06:38:00,17.2,12.1,30.27,NNW,329,0.0,0.0,80,0.00,,CLR,0.00,VWS V13.01,2013-01-06 10:38:00,
2013-01-06 06:40:00,17.2,12.1,30.27,NNW,329,0.0,0.0,80,0.00,,CLR,0.00,VWS V13.01,2013-01-06 10:40:00,
2013-01-06 06:41:00,17.2,12.1,30.27,NNW,329,0.0,0.0,80,0.00,,CLR,0.00,VWS V13.01,2013-01-06 10:41:00,
2013-01-06 06:42:00,17.2,12.1,30.27,NNW,329,0.0,0.0,80,0.00,,CLR,0.00,VWS V13.01,2013-01-06 10:42:00,
2013-01-06 06:43:00,17.2,12.1,30.27,NNW,329,0.0,0.0,80,0.00,,CLR,0.00,VWS V13.01,2013-01-06 10:43:00,
2013-01-06 06:45:00,17.0,11.9,30.27,NNW,329,0.0,0.0,80,0.00,,CLR,0.00,VWS V13.01,2013-01-06 10:45:00,
2013-01-06 06:47:00,17.0,11.9,30.27,NNW,329,0.0,0.0,80,0.00,,CLR,0.00,VWS V13.01,2013-01-06 10:47:00,
2013-01-06 06:48:00,17.0,11.9,30.27,NNW,329,0.0,0.0,80,0.00,,CLR,0.00,VWS V13.01,2013-01-06 10:48:00,
2013-01-06 06:50:00,17.0,11.9,30.27,NNW,329,0.0,4.0,80,0.00,,CLR,0.00,VWS V13.01,2013-01-06 10:50:00,
2013-01-06 06:52:00,17.0,11.9,30.27,NNW,329,0.0,0.0,80,0.00,,CLR,0.00,VWS V13.01,2013-01-06 10:52:00,
2013-01-06 06:54:00,16.9,11.8,30.27,NNW,330,0.0,0.0,80,0.00,,CLR,0.00,VWS V13.01,2013-01-06 10:54:00,
2013-01-06 06:56:00,16.7,11.6,30.27,NNW,329,0.0,0.0,80,0.00,,CLR,0.00,VWS V13.01,2013-01-06 10:56:00,
2013-01-06 06:57:00,16.7,11.6,30.27,NNW,329,0.0,0.0,80,0.00,,CLR,0.00,VWS V13.01,2013-01-06 10:57:00,
2013-01-06 06:58:00,16.7,11.6,30.27,NNW,329,0.0,0.0,80,0.00,,CLR,0.00,VWS V13.01,2013-01-06 10:58:00,
2013-01-06 06:59:00,16.7,11.6,30.27,NNW,329,0.0,0.0,80,0.00,,CLR,0.00,VWS V13.01,2013-01-06 10:59:00,
2013-01-06 07:00:00,15.1,10.3,30.27,NNW,329,0.0,0.0,81,0.00,,SCT055,0.00,VWS V14.01,2013-01-06 11:00:00,
2013-01-06 07:01:00,16.7,11.6,30.27,NNW,329,0.0,0.0,80,0.00,,CLR,0.00,VWS V13.01,2013-01-06 11:01:00,
2013-01-06 07:03:00,16.7,11.6,30.27,NNW,329,0.0,0.0,80,0.00,,CLR,0.00,VWS V13.01,2013-01-06 11:03:00,
2013-01-06 07:04:00,16.7,11.6,30.27,NNW,329,0.0,0.0,80,0.00,,CLR,0.00,VWS V13.01,2013-01-06 11:04:00,
2013-01-06 07:06:00,16.5,11.4,30.27,NNW,329,0.0,0.0,80,0.00,,CLR,0.00,VWS V13.01,2013-01-06 11:06:00,
2013-01-06 07:08:00,16.5,11.4,30.27,NNW,330,0.0,0.0,80,0.00,,CLR,0.00,VWS V13.01,2013-01-06 11:08:00,
2013-01-06 07:09:00,16.5,11.1,30.27,NNW,329,0.0,0.0,79,0.00,,CLR,0.00,VWS V13.01,2013-01-06 11:09:00,
2013-01-06 07:11:00,16.4,11.0,30.27,NNW,329,0.0,0.0,79,0.00,,CLR,0.00,VWS V13.01,2013-01-06 11:11:00,
2013-01-06 07:14:00,16.2,10.8,30.27,NNW,329,0.0,0.0,79,0.00,,CLR,0.00,VWS V13.01,2013-01-06 11:14:00,
2013-01-06 07:17:00,16.2,10.8,30.27,NNW,330,0.0,0.0,79,0.00,,CLR,0.00,VWS V13.01,2013-01-06 11:17:00,
2013-01-06 07:19:00,16.1,10.8,30.27,NNW,329,0.0,0.0,79,0.00,,CLR,0.00,VWS V13.01,2013-01-06 11:19:00,
2013-01-06 07:20:00,16.2,10.8,30.27,NNW,330,0.0,0.0,79,0.00,,CLR,0.00,VWS V13.01,2013-01-06 11:20:00,
2013-01-06 07:22:00,16.1,11.0,30.27,NNW,329,0.0,0.0,80,0.00,,CLR,0.00,VWS V13.01,2013-01-06 11:22:00,
2013-01-06 07:24:00,15.9,10.8,30.27,NNW,329,0.0,0.0,80,0.00,,CLR,0.00,VWS V13.01,2013-01-06 11:24:00,
2013-01-06 07:25:00,15.9,10.8,30.27,NNW,329,0.0,0.0,80,0.00,,CLR,0.00,VWS V13.01,2013-01-06 11:25:00,
2013-01-06 07:27:00,15.9,10.8,30.27,NNW,329,0.0,0.0,80,0.00,,CLR,0.00,VWS V13.01,2013-01-06 11:27:00,
2013-01-06 07:29:00,15.9,10.8,30.27,NNW,330,0.0,0.0,80,0.00,,CLR,0.00,VWS V13.01,2013-01-06 11:29:00,
2013-01-06 07:30:00,15.9,10.8,30.27,NNW,329,0.0,0.0,80,0.00,,CLR,0.00,VWS V13.01,2013-01-06 11:30:00,
2013-01-06 07:32:00,15.7,10.6,30.27,NNW,329,0.0,0.0,80,0.00,,CLR,0.00,VWS V13.01,2013-01-06 11:32:00,
2013-01-06 07:34:00,15.7,10.6,30.27,NNW,330,0.0,0.0,80,0.00,,CLR,0.00,VWS V13.01,2013-01-06 11:34:00,
2013-01-06 07:35:00,15.6,10.5,30.27,NNW,329,0.0,0.0,80,0.00,,CLR,0.00,VWS V13.01,2013-01-06 11:35:00,
2013-01-06 07:38:00,15.6,10.5,30.27,NNW,330,0.0,0.0,80,0.00,,CLR,0.00,VWS V13.01,2013-01-06 11:38:00,
2013-01-06 07:39:00,15.6,10.5,30.27,NNW,329,0.0,0.0,80,0.00,,CLR,0.00,VWS V13.01,2013-01-06 11:39:00,
2013-01-06 07:40:00,15.4,10.4,30.27,NNW,329,0.0,0.0,80,0.00,,CLR,0.00,VWS V13.01,2013-01-06 11:40:00,
2013-01-06 07:43:00,15.4,10.4,30.27,NNW,329,0.0,0.0,80,0.00,,CLR,0.00,VWS V13.01,2013-01-06 11:43:00,
2013-01-06 07:45:00,15.4,10.4,30.27,NNW,329,0.0,0.0,80,0.00,,CLR,0.00,VWS V13.01,2013-01-06 11:45:00,
2013-01-06 07:48:00,15.2,10.4,30.27,NNW,329,0.0,0.0,81,0.00,,CLR,0.00,VWS V13.01,2013-01-06 11:48:00,
2013-01-06 07:50:00,15.4,10.6,30.27,NNW,330,0.0,0.0,81,0.00,,CLR,0.00,VWS V13.01,2013-01-06 11:50:00,
2013-01-06 07:51:00,15.2,10.4,30.27,NNW,329,0.0,0.0,81,0.00,,CLR,0.00,VWS V13.01,2013-01-06 11:51:00,
2013-01-06 07:54:00,15.2,10.4,30.27,NNW,329,0.0,0.0,81,0.00,,CLR,0.00,VWS V13.01,2013-01-06 11:54:00,
2013-01-06 07:55:00,15.2,10.4,30.27,NNW,329,0.0,0.0,81,0.00,,CLR,0.00,VWS V13.01,2013-01-06 11:55:00,
2013-01-06 07:56:00,15.2,10.4,30.27,NNW,329,0.0,0.0,81,0.00,,CLR,0.00,VWS V13.01,2013-01-06 11:56:00,
2013-01-06 07:59:00,15.1,10.3,30.27,NNW,330,0.0,0.0,81,0.00,,CLR,0.00,VWS V13.01,2013-01-06 11:59:00,
2013-01-06 08:00:00,15.1,10.3,30.27,NNW,329,0.0,0.0,81,0.00,,CLR,0.00,VWS V13.01,2013-01-06 12:00:00,
2013-01-06 08:01:00,15.1,10.3,30.27,NNW,329,0.0,0.0,81,0.00,,CLR,0.00,VWS V13.01,2013-01-06 12:01:00,
2013-01-06 08:04:00,15.1,10.3,30.27,NNW,329,0.0,0.0,81,0.00,,CLR,0.00,VWS V13.01,2013-01-06 12:04:00,
2013-01-06 08:06:00,15.1,10.3,30.27,NNW,330,0.0,0.0,81,0.00,,CLR,0.00,VWS V13.01,2013-01-06 12:06:00,
2013-01-06 08:09:00,15.1,10.3,30.27,NNW,329,0.0,0.0,81,0.00,,CLR,0.00,VWS V13.01,2013-01-06 12:09:00,
2013-01-06 08:11:00,14.9,10.1,30.27,NNW,329,0.0,0.0,81,0.00,,CLR,0.00,VWS V13.01,2013-01-06 12:11:00,
2013-01-06 08:15:00,14.9,10.1,30.27,NNW,329,0.0,0.0,81,0.00,,CLR,0.00,VWS V13.01,2013-01-06 12:15:00,
2013-01-06 08:16:00,14.9,10.1,30.28,NNW,329,0.0,0.0,81,0.00,,CLR,0.00,VWS V13.01,2013-01-06 12:16:00,
2013-01-06 08:17:00,14.9,10.1,30.28,NNW,330,0.0,0.0,81,0.00,,CLR,0.00,VWS V13.01,2013-01-06 12:17:00,
2013-01-06 08:20:00,14.9,10.4,30.28,NNW,329,0.0,0.0,82,0.00,,CLR,0.00,VWS V13.01,2013-01-06 12:20:00,
2013-01-06 08:21:00,14.9,10.4,30.28,NNW,329,0.0,2.0,82,0.00,,CLR,0.00,VWS V13.01,2013-01-06 12:21:00,
2013-01-06 08:22:00,14.8,10.3,30.28,NNW,329,0.0,2.0,82,0.00,,CLR,0.00,VWS V13.01,2013-01-06 12:22:00,
2013-01-06 08:25:00,14.9,10.4,30.28,NNW,329,0.0,0.0,82,0.00,,CLR,0.00,VWS V13.01,2013-01-06 12:25:00,
2013-01-06 08:26:00,14.9,10.4,30.28,NNW,329,0.0,0.0,82,0.00,,CLR,0.00,VWS V13.01,2013-01-06 12:26:00,
2013-01-06 08:27:00,14.9,10.4,30.28,NNW,329,0.0,0.0,82,0.00,,CLR,0.00,VWS V13.01,2013-01-06 12:27:00,
2013-01-06 08:30:00,15.1,10.6,30.28,NNW,329,0.0,0.0,82,0.00,,CLR,0.00,VWS V13.01,2013-01-06 12:30:00,
2013-01-06 08:31:00,14.9,10.4,30.28,NNW,329,0.0,0.0,82,0.00,,CLR,0.00,VWS V13.01,2013-01-06 12:31:00,
2013-01-06 08:32:00,14.9,10.4,30.28,NW,326,0.0,0.0,82,0.00,,CLR,0.00,VWS V13.01,2013-01-06 12:32:00,
2013-01-06 08:35:00,15.1,10.6,30.28,NNW,330,0.0,0.0,82,0.00,,CLR,0.00,VWS V13.01,2013-01-06 12:35:00,
2013-01-06 08:36:00,15.1,10.9,30.28,NNW,329,0.0,0.0,83,0.00,,CLR,0.00,VWS V13.01,2013-01-06 12:36:00,
2013-01-06 08:37:00,15.1,10.9,30.28,NNW,330,0.0,0.0,83,0.00,,CLR,0.00,VWS V13.01,2013-01-06 12:37:00,
2013-01-06 08:38:00,15.1,10.9,30.28,NNW,329,0.0,0.0,83,0.00,,CLR,0.00,VWS V13.01,2013-01-06 12:38:00,
2013-01-06 08:40:00,15.1,10.9,30.28,NNW,329,0.0,0.0,83,0.00,,CLR,0.00,VWS V13.01,2013-01-06 12:40:00,
2013-01-06 08:42:00,15.2,11.0,30.28,NNW,330,0.0,0.0,83,0.00,,CLR,0.00,VWS V13.01,2013-01-06 12:42:00,
2013-01-06 08:43:00,15.2,11.0,30.28,NNW,330,0.0,0.0,83,0.00,,CLR,0.00,VWS V13.01,2013-01-06 12:43:00,
2013-01-06 08:45:00,15.2,11.0,30.29,NNW,329,0.0,0.0,83,0.00,,CLR,0.00,VWS V13.01,2013-01-06 12:45:00,
2013-01-06 08:48:00,15.2,11.0,30.29,NNW,330,0.0,0.0,83,0.00,,CLR,0.00,VWS V13.01,2013-01-06 12:48:00,
2013-01-06 08:51:00,15.1,10.9,30.29,NNW,329,0.0,0.0,83,0.00,,CLR,0.00,VWS V13.01,2013-01-06 12:51:00,
2013-01-06 08:53:00,15.2,11.0,30.29,NNW,330,0.0,0.0,83,0.00,,CLR,0.00,VWS V13.01,2013-01-06 12:53:00,
2013-01-06 08:54:00,15.1,10.9,30.29,NNW,330,0.0,0.0,83,0.00,,CLR,0.00,VWS V13.01,2013-01-06 12:54:00,
2013-01-06 08:56:00,15.1,10.9,30.29,NNW,330,0.0,0.0,83,0.00,,CLR,0.00,VWS V13.01,2013-01-06 12:56:00,
2013-01-06 08:58:00,15.1,10.9,30.29,NNW,329,0.0,4.0,83,0.00,,CLR,0.00,VWS V13.01,2013-01-06 12:58:00,
2013-01-06 08:59:00,15.1,10.9,30.29,NNW,329,0.0,4.0,83,0.00,,CLR,0.00,VWS V13.01,2013-01-06 12:59:00,
2013-01-06 09:00:00,14.8,10.9,30.31,NNW,329,0.0,0.0,84,0.00,,SCT055,0.00,VWS V14.01,2013-01-06 13:00:00,
2013-01-06 09:01:00,15.1,10.9,30.30,NNW,329,0.0,0.0,83,0.00,,CLR,0.00,VWS V13.01,2013-01-06 13:01:00,
2013-01-06 09:03:00,15.2,11.0,30.30,NNW,330,0.0,0.0,83,0.00,,CLR,0.00,VWS V13.01,2013-01-06 13:03:00,
2013-01-06 09:04:00,15.1,10.9,30.30,NNW,329,0.0,0.0,83,0.00,,CLR,0.00,VWS V13.01,2013-01-06 13:04:00,
2013-01-06 09:05:00,15.1,10.9,30.30,NNW,330,0.0,0.0,83,0.00,,CLR,0.00,VWS V13.01,2013-01-06 13:05:00,
2013-01-06 09:07:00,15.2,11.0,30.30,NNW,329,0.0,0.0,83,0.00,,CLR,0.00,VWS V13.01,2013-01-06 13:07:00,
2013-01-06 09:08:00,15.1,10.9,30.30,NNW,329,0.0,0.0,83,0.00,,CLR,0.00,VWS V13.01,2013-01-06 13:08:00,
2013-01-06 09:09:00,15.1,10.9,30.30,NNW,329,0.0,0.0,83,0.00,,CLR,0.00,VWS V13.01,2013-01-06 13:09:00,
2013-01-06 09:10:00,15.1,10.9,30.30,NNW,329,0.0,0.0,83,0.00,,CLR,0.00,VWS V13.01,2013-01-06 13:10:00,
2013-01-06 09:12:00,15.1,10.9,30.30,NNW,329,0.0,0.0,83,0.00,,CLR,0.00,VWS V13.01,2013-01-06 13:12:00,
2013-01-06 09:14:00,14.9,10.7,30.30,NNW,329,0.0,0.0,83,0.00,,CLR,0.00,VWS V13.01,2013-01-06 13:14:00,
2013-01-06 09:15:00,15.1,10.9,30.30,NNW,329,0.0,0.0,83,0.00,,CLR,0.00,VWS V13.01,2013-01-06 13:15:00,
2013-01-06 09:16:00,15.1,10.9,30.30,NNW,330,0.0,0.0,83,0.00,,CLR,0.00,VWS V13.01,2013-01-06 13:16:00,
2013-01-06 09:17:00,15.1,10.9,30.30,NNW,329,0.0,0.0,83,0.00,,CLR,0.00,VWS V13.01,2013-01-06 13:17:00,
2013-01-06 09:19:00,15.1,10.9,30.30,NNW,329,0.0,0.0,83,0.00,,CLR,0.00,VWS V13.01,2013-01-06 13:19:00,
2013-01-06 09:20:00,14.9,10.7,30.30,NNW,329,0.0,0.0,83,0.00,,CLR,0.00,VWS V13.01,2013-01-06 13:20:00,
2013-01-06 09:21:00,15.1,10.9,30.30,NNW,329,0.0,0.0,83,0.00,,CLR,0.00,VWS V13.01,2013-01-06 13:21:00,
2013-01-06 09:23:00,15.1,10.9,30.30,NNW,330,0.0,0.0,83,0.00,,CLR,0.00,VWS V13.01,2013-01-06 13:23:00,
2013-01-06 09:24:00,14.9,10.7,30.30,NNW,329,0.0,0.0,83,0.00,,CLR,0.00,VWS V13.01,2013-01-06 13:24:00,
2013-01-06 09:26:00,15.1,10.9,30.30,NNW,329,0.0,0.0,83,0.00,,CLR,0.00,VWS V13.01,2013-01-06 13:26:00,
2013-01-06 09:28:00,14.9,10.7,30.30,NNW,329,0.0,0.0,83,0.00,,CLR,0.00,VWS V13.01,2013-01-06 13:28:00,
2013-01-06 09:29:00,14.9,10.7,30.30,NNW,329,0.0,0.0,83,0.00,,CLR,0.00,VWS V13.01,2013-01-06 13:29:00,
2013-01-06 09:30:00,15.4,11.4,30.30,NNW,329,0.0,0.0,84,0.00,,SCT055,0.00,VWS V14.01,2013-01-06 13:30:00,
2013-01-06 09:31:00,14.9,10.7,30.30,NNW,329,0.0,0.0,83,0.00,,CLR,0.00,VWS V13.01,2013-01-06 13:31:00,
2013-01-06 09:32:00,14.8,10.6,30.30,NNW,329,0.0,0.0,83,0.00,,CLR,0.00,VWS V13.01,2013-01-06 13:32:00,
2013-01-06 09:33:00,14.8,10.6,30.30,NNW,329,0.0,0.0,83,0.00,,CLR,0.00,VWS V13.01,2013-01-06 13:33:00,
2013-01-06 09:35:00,14.8,10.6,30.30,NNW,329,0.0,0.0,83,0.00,,CLR,0.00,VWS V13.01,2013-01-06 13:35:00,
2013-01-06 09:36:00,14.8,10.6,30.30,NNW,329,0.0,0.0,83,0.00,,CLR,0.00,VWS V13.01,2013-01-06 13:36:00,
2013-01-06 09:37:00,14.8,10.6,30.30,NNW,329,0.0,0.0,83,0.00,,CLR,0.00,VWS V13.01,2013-01-06 13:37:00,
2013-01-06 09:38:00,14.9,10.7,30.30,NNW,330,0.0,0.0,83,0.00,,CLR,0.00,VWS V13.01,2013-01-06 13:38:00,
2013-01-06 09:40:00,14.9,10.7,30.30,NNW,329,0.0,0.0,83,0.00,,CLR,0.00,VWS V13.01,2013-01-06 13:40:00,
2013-01-06 09:41:00,14.8,10.6,30.30,NNW,329,0.0,0.0,83,0.00,,CLR,0.00,VWS V13.01,2013-01-06 13:41:00,
2013-01-06 09:43:00,14.9,10.7,30.30,NNW,329,0.0,0.0,83,0.00,,CLR,0.00,VWS V13.01,2013-01-06 13:43:00,
2013-01-06 09:44:00,14.9,10.9,30.30,NNW,329,0.0,0.0,84,0.00,,CLR,0.00,VWS V13.01,2013-01-06 13:44:00,
2013-01-06 09:45:00,14.9,10.9,30.30,NNW,329,0.0,0.0,84,0.00,,CLR,0.00,VWS V13.01,2013-01-06 13:45:00,
2013-01-06 09:46:00,14.9,10.9,30.30,NNW,329,0.0,0.0,84,0.00,,CLR,0.00,VWS V13.01,2013-01-06 13:46:00,
2013-01-06 09:48:00,14.8,10.9,30.30,NNW,329,0.0,0.0,84,0.00,,CLR,0.00,VWS V13.01,2013-01-06 13:48:00,
2013-01-06 09:49:00,14.8,10.9,30.30,NNW,329,0.0,0.0,84,0.00,,CLR,0.00,VWS V13.01,2013-01-06 13:49:00,
2013-01-06 09:50:00,14.9,10.9,30.30,NNW,329,0.0,0.0,84,0.00,,CLR,0.00,VWS V13.01,2013-01-06 13:50:00,
2013-01-06 09:52:00,14.8,10.9,30.30,NNW,329,0.0,0.0,84,0.00,,CLR,0.00,VWS V13.01,2013-01-06 13:52:00,
2013-01-06 09:54:00,14.8,10.9,30.30,NNW,329,0.0,0.0,84,0.00,,CLR,0.00,VWS V13.01,2013-01-06 13:54:00,
2013-01-06 09:55:00,14.9,10.9,30.30,NNW,329,0.0,0.0,84,0.00,,CLR,0.00,VWS V13.01,2013-01-06 13:55:00,
2013-01-06 09:57:00,14.9,10.9,30.30,NNW,329,0.0,0.0,84,0.00,,CLR,0.00,VWS V13.01,2013-01-06 13:57:00,
2013-01-06 09:59:00,14.8,10.9,30.30,NNW,330,0.0,0.0,84,0.00,,CLR,0.00,VWS V13.01,2013-01-06 13:59:00,
2013-01-06 10:00:00,14.8,10.9,30.30,NNW,329,0.0,0.0,84,0.00,,CLR,0.00,VWS V13.01,2013-01-06 14:00:00,
2013-01-06 10:01:00,14.8,10.9,30.31,NNW,330,0.0,0.0,84,0.00,,CLR,0.00,VWS V13.01,2013-01-06 14:01:00,
2013-01-06 10:03:00,14.9,10.9,30.31,NNW,329,0.0,0.0,84,0.00,,CLR,0.00,VWS V13.01,2013-01-06 14:03:00,
2013-01-06 10:05:00,14.8,10.9,30.31,NNW,329,0.0,0.0,84,0.00,,CLR,0.00,VWS V13.01,2013-01-06 14:05:00,
2013-01-06 10:06:00,14.8,10.9,30.31,NNW,329,0.0,0.0,84,0.00,,CLR,0.00,VWS V13.01,2013-01-06 14:06:00,
2013-01-06 10:08:00,14.8,10.9,30.31,NNW,329,0.0,0.0,84,0.00,,CLR,0.00,VWS V13.01,2013-01-06 14:08:00,
2013-01-06 10:10:00,14.8,10.9,30.31,NNW,329,0.0,0.0,84,0.00,,CLR,0.00,VWS V13.01,2013-01-06 14:10:00,
2013-01-06 10:11:00,14.8,10.9,30.31,NNW,330,0.0,0.0,84,0.00,,CLR,0.00,VWS V13.01,2013-01-06 14:11:00,
2013-01-06 10:13:00,14.8,10.9,30.31,NNW,330,0.0,0.0,84,0.00,,CLR,0.00,VWS V13.01,2013-01-06 14:13:00,
2013-01-06 10:16:00,14.8,10.9,30.31,NNW,330,0.0,0.0,84,0.00,,CLR,0.00,VWS V13.01,2013-01-06 14:16:00,
2013-01-06 10:17:00,14.8,10.9,30.31,NNW,329,0.0,0.0,84,0.00,,CLR,0.00,VWS V13.01,2013-01-06 14:17:00,
2013-01-06 10:18:00,14.6,10.7,30.31,NNW,329,0.0,0.0,84,0.00,,CLR,0.00,VWS V13.01,2013-01-06 14:18:00,
2013-01-06 10:21:00,14.8,10.9,30.31,NNW,329,0.0,0.0,84,0.00,,CLR,0.00,VWS V13.01,2013-01-06 14:21:00,
2013-01-06 10:23:00,14.8,10.9,30.31,NNW,329,0.0,0.0,84,0.00,,CLR,0.00,VWS V13.01,2013-01-06 14:23:00,
2013-01-06 10:26:00,15.1,11.1,30.31,NNW,329,0.0,0.0,84,0.00,,CLR,0.00,VWS V13.01,2013-01-06 14:26:00,
2013-01-06 10:27:00,15.1,11.1,30.31,NNW,329,0.0,0.0,84,0.00,,CLR,0.00,VWS V13.01,2013-01-06 14:27:00,
2013-01-06 10:29:00,15.2,11.2,30.31,NNW,329,0.0,0.0,84,0.00,,CLR,0.00,VWS V13.01,2013-01-06 14:29:00,
2013-01-06 10:30:00,15.1,11.1,30.31,NNW,329,0.0,0.0,84,0.00,,CLR,0.00,VWS V13.01,2013-01-06 14:30:00,
2013-01-06 10:32:00,15.4,11.4,30.30,NNW,329,0.0,0.0,84,0.00,,CLR,0.00,VWS V13.01,2013-01-06 14:32:00,
2013-01-06 10:34:00,15.4,11.4,30.30,NNW,329,0.0,0.0,84,0.00,,CLR,0.00,VWS V13.01,2013-01-06 14:34:00,
2013-01-06 10:35:00,15.6,11.6,30.30,NNW,329,0.0,0.0,84,0.00,,CLR,0.00,VWS V13.01,2013-01-06 14:35:00,
2013-01-06 10:37:00,15.7,11.7,30.30,NNW,329,0.0,0.0,84,0.00,,CLR,0.00,VWS V13.01,2013-01-06 14:37:00,
2013-01-06 10:38:00,15.7,12.0,30.30,NNW,329,0.0,0.0,85,0.00,,CLR,0.00,VWS V13.01,2013-01-06 14:38:00,
2013-01-06 10:39:00,15.9,12.2,30.30,NNW,329,0.0,0.0,85,0.00,,CLR,0.00,VWS V13.01,2013-01-06 14:39:00,
2013-01-06 10:40:00,15.9,12.2,30.30,NNW,329,2.0,4.0,85,0.00,,CLR,0.00,VWS V13.01,2013-01-06 14:40:00,
2013-01-06 10:42:00,16.1,12.4,30.30,NNW,330,0.0,0.0,85,0.00,,CLR,0.00,VWS V13.01,2013-01-06 14:42:00,
2013-01-06 10:44:00,16.2,12.5,30.30,NNW,330,0.0,0.0,85,0.00,,CLR,0.00,VWS V13.01,2013-01-06 14:44:00,
2013-01-06 10:45:00,16.2,12.5,30.30,NNW,329,0.0,0.0,85,0.00,,CLR,0.00,VWS V13.01,2013-01-06 14:45:00,
2013-01-06 10:47:00,16.4,12.7,30.31,NNW,329,0.0,0.0,85,0.00,,CLR,0.00,VWS V13.01,2013-01-06 14:47:00,
2013-01-06 10:49:00,16.5,12.8,30.31,NNW,330,0.0,0.0,85,0.00,,CLR,0.00,VWS V13.01,2013-01-06 14:49:00,
2013-01-06 10:50:00,16.7,13.0,30.31,NNW,330,0.0,0.0,85,0.00,,CLR,0.00,VWS V13.01,2013-01-06 14:50:00,
2013-01-06 10:52:00,16.9,13.2,30.31,NNW,329,0.0,0.0,85,0.00,,CLR,0.00,VWS V13.01,2013-01-06 14:52:00,
2013-01-06 10:55:00,17.0,13.3,30.31,NNW,329,4.0,4.0,85,0.00,,CLR,0.00,VWS V13.01,2013-01-06 14:55:00,
2013-01-06 10:58:00,17.3,13.3,30.31,NNW,329,0.0,2.0,84,0.00,,CLR,0.00,VWS V13.01,2013-01-06 14:58:00,
2013-01-06 11:00:00,17.3,13.3,30.31,SW,220,6.0,10.0,84,0.00,,CLR,0.00,VWS V13.01,2013-01-06 15:00:00,
2013-01-06 11:01:00,17.5,13.5,30.32,SW,220,4.0,10.0,84,0.00,,CLR,0.00,VWS V13.01,2013-01-06 15:01:00,
2013-01-06 11:03:00,17.7,13.7,30.32,SW,220,4.0,6.0,84,0.00,,CLR,0.00,VWS V13.01,2013-01-06 15:03:00,
2013-01-06 11:05:00,17.8,13.5,30.32,SW,220,0.0,6.0,83,0.00,,CLR,0.00,VWS V13.01,2013-01-06 15:05:00,
2013-01-06 11:06:00,17.8,13.5,30.32,SW,220,0.0,6.0,83,0.00,,CLR,0.00,VWS V13.01,2013-01-06 15:06:00,
2013-01-06 11:09:00,18.0,13.7,30.32,West,281,2.0,6.0,83,0.00,,CLR,0.00,VWS V13.01,2013-01-06 15:09:00,
2013-01-06 11:11:00,18.1,13.5,30.32,SW,227,10.0,10.0,82,0.00,,CLR,0.00,VWS V13.01,2013-01-06 15:11:00,
2013-01-06 11:14:00,18.3,13.7,30.32,SW,224,2.0,4.0,82,0.00,,CLR,0.00,VWS V13.01,2013-01-06 15:14:00,
2013-01-06 11:16:00,18.4,13.8,30.33,SW,224,0.0,4.0,82,0.00,,CLR,0.00,VWS V13.01,2013-01-06 15:16:00,
2013-01-06 11:17:00,18.4,13.8,30.33,SW,224,0.0,4.0,82,0.00,,CLR,0.00,VWS V13.01,2013-01-06 15:17:00,
2013-01-06 11:20:00,18.6,13.8,30.33,SW,230,0.0,0.0,81,0.00,,CLR,0.00,VWS V13.01,2013-01-06 15:20:00,
2013-01-06 11:22:00,18.8,13.9,30.33,SW,230,0.0,0.0,81,0.00,,CLR,0.00,VWS V13.01,2013-01-06 15:22:00,
2013-01-06 11:25:00,19.1,14.2,30.33,SW,230,0.0,0.0,81,0.00,,CLR,0.00,VWS V13.01,2013-01-06 15:25:00,
2013-01-06 11:27:00,19.2,14.3,30.33,SW,230,0.0,0.0,81,0.00,,CLR,0.00,VWS V13.01,2013-01-06 15:27:00,
2013-01-06 11:28:00,19.2,14.3,30.33,SW,230,0.0,0.0,81,0.00,,CLR,0.00,VWS V13.01,2013-01-06 15:28:00,
2013-01-06 11:30:00,19.4,14.2,30.33,SW,230,0.0,4.0,80,0.00,,CLR,0.00,VWS V13.01,2013-01-06 15:30:00,
2013-01-06 11:32:00,19.5,14.4,30.33,SW,230,0.0,4.0,80,0.00,,CLR,0.00,VWS V13.01,2013-01-06 15:32:00,
2013-01-06 11:33:00,19.5,14.1,30.33,SW,230,0.0,4.0,79,0.00,,CLR,0.00,VWS V13.01,2013-01-06 15:33:00,
2013-01-06 11:36:00,19.7,14.3,30.33,SW,230,0.0,0.0,79,0.00,,CLR,0.00,VWS V13.01,2013-01-06 15:36:00,
2013-01-06 11:37:00,19.9,14.4,30.33,SW,230,0.0,0.0,79,0.00,,CLR,0.00,VWS V13.01,2013-01-06 15:37:00,
2013-01-06 11:38:00,19.9,14.4,30.33,SW,230,0.0,0.0,79,0.00,,CLR,0.00,VWS V13.01,2013-01-06 15:38:00,
2013-01-06 11:41:00,20.0,14.3,30.33,SW,233,0.0,6.0,78,0.00,,CLR,0.00,VWS V13.01,2013-01-06 15:41:00,
2013-01-06 11:42:00,20.2,14.4,30.33,SW,233,0.0,2.0,78,0.00,,CLR,0.00,VWS V13.01,2013-01-06 15:42:00,
2013-01-06 11:43:00,20.3,14.6,30.33,SW,233,0.0,2.0,78,0.00,,CLR,0.00,VWS V13.01,2013-01-06 15:43:00,
2013-01-06 11:44:00,20.3,14.6,30.33,SW,233,0.0,2.0,78,0.00,,CLR,0.00,VWS V13.01,2013-01-06 15:44:00,
2013-01-06 11:46:00,20.5,14.7,30.33,SW,233,0.0,0.0,78,0.00,,CLR,0.00,VWS V13.01,2013-01-06 15:46:00,
2013-01-06 11:47:00,20.6,14.6,30.33,SW,233,0.0,6.0,77,0.00,,CLR,0.00,VWS V13.01,2013-01-06 15:47:00,
2013-01-06 11:48:00,20.6,14.6,30.33,SW,233,6.0,6.0,77,0.00,,CLR,0.00,VWS V13.01,2013-01-06 15:48:00,
2013-01-06 11:50:00,20.8,14.7,30.33,SW,233,0.0,6.0,77,0.00,,CLR,0.00,VWS V13.01,2013-01-06 15:50:00,
2013-01-06 11:51:00,21.0,14.9,30.33,SW,233,0.0,0.0,77,0.00,,CLR,0.00,VWS V13.01,2013-01-06 15:51:00,
2013-01-06 11:53:00,21.0,14.6,30.33,SW,233,0.0,0.0,76,0.00,,CLR,0.00,VWS V13.01,2013-01-06 15:53:00,
2013-01-06 11:55:00,21.1,14.7,30.33,SW,233,0.0,10.0,76,0.00,,CLR,0.00,VWS V13.01,2013-01-06 15:55:00,
2013-01-06 11:56:00,21.1,14.7,30.33,SW,233,4.0,10.0,76,0.00,,CLR,0.00,VWS V13.01,2013-01-06 15:56:00,
2013-01-06 11:58:00,21.3,14.6,30.33,SW,233,6.0,6.0,75,0.00,,CLR,0.00,VWS V13.01,2013-01-06 15:58:00,
2013-01-06 11:59:00,21.3,14.6,30.33,SW,233,2.0,6.0,75,0.00,,CLR,0.00,VWS V13.01,2013-01-06 15:59:00,
2013-01-06 12:00:00,26.0,16.2,30.32,WNW,292,6.0,10.0,66,0.00,,SCT055,0.00,VWS V14.01,2013-01-06 16:00:00,
2013-01-06 12:01:00,21.4,14.7,30.33,SW,233,0.0,6.0,75,0.00,,CLR,0.00,VWS V13.01,2013-01-06 16:01:00,
2013-01-06 12:03:00,21.6,14.9,30.33,SW,233,0.0,0.0,75,0.00,,CLR,0.00,VWS V13.01,2013-01-06 16:03:00,
2013-01-06 12:04:00,21.6,14.9,30.33,SW,233,0.0,0.0,75,0.00,,CLR,0.00,VWS V13.01,2013-01-06 16:04:00,
2013-01-06 12:06:00,21.8,14.8,30.33,SW,233,0.0,6.0,74,0.00,,CLR,0.00,VWS V13.01,2013-01-06 16:06:00,
2013-01-06 12:09:00,21.9,14.9,30.33,WSW,244,0.0,10.0,74,0.00,,CLR,0.00,VWS V13.01,2013-01-06 16:09:00,
2013-01-06 12:11:00,22.1,15.1,30.33,WSW,244,4.0,6.0,74,0.00,,CLR,0.00,VWS V13.01,2013-01-06 16:11:00,
2013-01-06 12:12:00,22.1,15.1,30.33,WSW,244,2.0,6.0,74,0.00,,CLR,0.00,VWS V13.01,2013-01-06 16:12:00,
2013-01-06 12:14:00,22.2,14.9,30.33,WSW,244,0.0,0.0,73,0.00,,CLR,0.00,VWS V13.01,2013-01-06 16:14:00,
2013-01-06 12:16:00,22.5,15.2,30.33,WSW,244,0.0,0.0,73,0.00,,CLR,0.00,VWS V13.01,2013-01-06 16:16:00,
2013-01-06 12:17:00,22.5,15.2,30.33,WSW,244,0.0,0.0,73,0.00,,CLR,0.00,VWS V13.01,2013-01-06 16:17:00,
2013-01-06 12:19:00,22.7,15.4,30.33,WSW,244,0.0,10.0,73,0.00,,CLR,0.00,VWS V13.01,2013-01-06 16:19:00,
2013-01-06 12:22:00,23.0,15.3,30.33,WSW,244,6.0,8.0,72,0.00,,CLR,0.00,VWS V13.01,2013-01-06 16:22:00,
2013-01-06 12:24:00,23.2,15.5,30.33,WSW,244,4.0,6.0,72,0.00,,CLR,0.00,VWS V13.01,2013-01-06 16:24:00,
2013-01-06 12:27:00,23.5,15.8,30.33,WSW,244,4.0,6.0,72,0.00,,CLR,0.00,VWS V13.01,2013-01-06 16:27:00,
2013-01-06 12:29:00,23.6,15.6,30.33,WSW,244,4.0,10.0,71,0.00,,CLR,0.00,VWS V13.01,2013-01-06 16:29:00,
2013-01-06 12:30:00,23.8,15.8,30.33,WSW,244,2.0,10.0,71,0.00,,CLR,0.00,VWS V13.01,2013-01-06 16:30:00,
2013-01-06 12:32:00,23.9,15.9,30.32,WSW,244,0.0,0.0,71,0.00,,CLR,0.00,VWS V13.01,2013-01-06 16:32:00,
2013-01-06 12:35:00,24.2,15.8,30.32,West,271,8.0,12.0,70,0.00,,CLR,0.00,VWS V13.01,2013-01-06 16:35:00,
2013-01-06 12:37:00,24.4,15.7,30.32,WSW,243,4.0,10.0,69,0.00,,CLR,0.00,VWS V13.01,2013-01-06 16:37:00,
2013-01-06 12:40:00,24.5,15.8,30.32,WSW,243,6.0,10.0,69,0.00,,CLR,0.00,VWS V13.01,2013-01-06 16:40:00,
2013-01-06 12:41:00,24.7,16.0,30.32,WSW,243,2.0,10.0,69,0.00,,CLR,0.00,VWS V13.01,2013-01-06 16:41:00,
2013-01-06 12:43:00,24.8,16.1,30.32,WSW,243,0.0,4.0,69,0.00,,CLR,0.00,VWS V13.01,2013-01-06 16:43:00,
2013-01-06 12:45:00,25.0,16.3,30.32,SW,220,6.0,10.0,69,0.00,,CLR,0.00,VWS V13.01,2013-01-06 16:45:00,
2013-01-06 12:46:00,25.0,16.3,30.32,SW,220,6.0,10.0,69,0.00,,CLR,0.00,VWS V13.01,2013-01-06 16:46:00,
2013-01-06 12:48:00,25.1,16.0,30.32,SW,224,4.0,8.0,68,0.00,,CLR,0.00,VWS V13.01,2013-01-06 16:48:00,
2013-01-06 12:50:00,25.4,16.3,30.32,SW,224,4.0,6.0,68,0.00,,CLR,0.00,VWS V13.01,2013-01-06 16:50:00,
2013-01-06 12:51:00,25.4,16.3,30.32,SW,224,0.0,6.0,68,0.00,,CLR,0.00,VWS V13.01,2013-01-06 16:51:00,
2013-01-06 12:53:00,25.6,16.5,30.32,SW,224,4.0,6.0,68,0.00,,CLR,0.00,VWS V13.01,2013-01-06 16:53:00,
2013-01-06 12:55:00,25.7,16.3,30.32,SW,224,4.0,6.0,67,0.00,,CLR,0.00,VWS V13.01,2013-01-06 16:55:00,
2013-01-06 12:56:00,25.8,16.4,30.32,SW,224,4.0,10.0,67,0.00,,CLR,0.00,VWS V13.01,2013-01-06 16:56:00,
2013-01-06 12:59:00,25.8,16.0,30.32,SW,224,0.0,6.0,66,0.00,,CLR,0.00,VWS V13.01,2013-01-06 16:59:00,
2013-01-06 13:00:00,26.0,16.2,30.32,SW,227,6.0,8.0,66,0.00,,CLR,0.00,VWS V13.01,2013-01-06 17:00:00,
2013-01-06 13:01:00,26.0,16.2,30.32,NW,304,10.0,10.0,66,0.00,,CLR,0.00,VWS V13.01,2013-01-06 17:01:00,
2013-01-06 13:04:00,26.1,16.3,30.32,WSW,237,4.0,6.0,66,0.00,,CLR,0.00,VWS V13.01,2013-01-06 17:04:00,
2013-01-06 13:06:00,26.3,16.5,30.32,WSW,237,0.0,6.0,66,0.00,,CLR,0.00,VWS V13.01,2013-01-06 17:06:00,
2013-01-06 13:09:00,26.6,16.8,30.32,WSW,237,2.0,10.0,66,0.00,,CLR,0.00,VWS V13.01,2013-01-06 17:09:00,
2013-01-06 13:11:00,26.6,16.4,30.32,West,265,4.0,10.0,65,0.00,,CLR,0.00,VWS V13.01,2013-01-06 17:11:00,
2013-01-06 13:15:00,26.9,16.7,30.32,West,274,4.0,6.0,65,0.00,,CLR,0.00,VWS V13.01,2013-01-06 17:15:00,
2013-01-06 13:16:00,26.9,17.1,30.32,West,275,0.0,6.0,66,0.00,,CLR,0.00,VWS V13.01,2013-01-06 17:16:00,
2013-01-06 13:20:00,27.3,17.1,30.32,West,274,2.0,6.0,65,0.00,,CLR,0.00,VWS V13.01,2013-01-06 17:20:00,
2013-01-06 13:21:00,27.3,17.1,30.32,West,274,0.0,6.0,65,0.00,,CLR,0.00,VWS V13.01,2013-01-06 17:21:00,
2013-01-06 13:25:00,27.9,17.3,30.32,WSW,254,6.0,10.0,64,0.00,,CLR,0.00,VWS V13.01,2013-01-06 17:25:00,
2013-01-06 13:26:00,27.9,17.3,30.32,West,265,2.0,10.0,64,0.00,,CLR,0.00,VWS V13.01,2013-01-06 17:26:00,
2013-01-06 13:27:00,28.1,17.5,30.32,SSE,161,4.0,8.0,64,0.00,,CLR,0.00,VWS V13.01,2013-01-06 17:27:00,
2013-01-06 13:30:00,33.5,19.1,30.27,SSW,210,0.0,6.0,55,0.00,,SCT055,0.00,VWS V14.01,2013-01-06 17:30:00,
2013-01-06 13:31:00,28.5,17.5,30.31,SW,234,4.0,6.0,63,0.00,,CLR,0.00,VWS V13.01,2013-01-06 17:31:00,
2013-01-06 13:32:00,28.5,17.5,30.31,WNW,287,2.0,12.0,63,0.00,,CLR,0.00,VWS V13.01,2013-01-06 17:32:00,
2013-01-06 13:36:00,28.8,17.4,30.31,West,277,6.0,6.0,62,0.00,,CLR,0.00,VWS V13.01,2013-01-06 17:36:00,
2013-01-06 13:37:00,28.8,17.4,30.31,West,274,0.0,6.0,62,0.00,,CLR,0.00,VWS V13.01,2013-01-06 17:37:00,
2013-01-06 13:42:00,29.4,18.0,30.31,SW,222,0.0,0.0,62,0.00,,CLR,0.00,VWS V13.01,2013-01-06 17:42:00,
2013-01-06 13:43:00,29.7,18.7,30.31,SW,220,4.0,6.0,63,0.00,,CLR,0.00,VWS V13.01,2013-01-06 17:43:00,
2013-01-06 13:47:00,30.3,18.1,30.30,West,274,4.0,4.0,60,0.00,,CLR,0.00,VWS V13.01,2013-01-06 17:47:00,
2013-01-06 13:48:00,30.3,18.1,30.30,West,274,0.0,6.0,60,0.00,,CLR,0.00,VWS V13.01,2013-01-06 17:48:00,
2013-01-06 13:49:00,30.4,18.2,30.30,West,274,0.0,6.0,60,0.00,,CLR,0.00,VWS V13.01,2013-01-06 17:49:00,
2013-01-06 13:52:00,30.7,18.5,30.30,SW,216,0.0,4.0,60,0.00,,CLR,0.00,VWS V13.01,2013-01-06 17:52:00,
2013-01-06 13:53:00,30.9,18.7,30.30,SSW,203,6.0,6.0,60,0.00,,CLR,0.00,VWS V13.01,2013-01-06 17:53:00,
2013-01-06 13:54:00,31.0,18.4,30.30,SSW,205,0.0,6.0,59,0.00,,CLR,0.00,VWS V13.01,2013-01-06 17:54:00,
2013-01-06 13:57:00,31.5,18.8,30.30,SSW,206,0.0,0.0,59,0.00,,CLR,0.00,VWS V13.01,2013-01-06 17:57:00,
2013-01-06 13:58:00,31.6,18.9,30.30,SSW,206,0.0,0.0,59,0.00,,CLR,0.00,VWS V13.01,2013-01-06 17:58:00,
2013-01-06 13:59:00,31.8,19.1,30.30,SSW,205,0.0,0.0,59,0.00,,CLR,0.00,VWS V13.01,2013-01-06 17:59:00,
2013-01-06 14:00:00,36.0,20.1,30.26,West,270,0.0,2.0,52,0.00,,SCT055,0.00,VWS V14.01,2013-01-06 18:00:00,
2013-01-06 14:02:00,32.2,19.1,30.29,SSW,205,0.0,2.0,58,0.00,,CLR,0.00,VWS V13.01,2013-01-06 18:02:00,
2013-01-06 14:03:00,32.4,18.9,30.29,SSW,205,0.0,4.0,57,0.00,,CLR,0.00,VWS V13.01,2013-01-06 18:03:00,
2013-01-06 14:04:00,32.4,18.9,30.29,SSW,206,2.0,4.0,57,0.00,,CLR,0.00,VWS V13.01,2013-01-06 18:04:00,
2013-01-06 14:07:00,32.4,18.5,30.29,WSW,246,4.0,10.0,56,0.00,,CLR,0.00,VWS V13.01,2013-01-06 18:07:00,
2013-01-06 14:09:00,32.4,18.9,30.29,WSW,246,0.0,10.0,57,0.00,,CLR,0.00,VWS V13.01,2013-01-06 18:09:00,
2013-01-06 14:12:00,32.7,18.8,30.29,SSW,209,2.0,4.0,56,0.00,,CLR,0.00,VWS V13.01,2013-01-06 18:12:00,
2013-01-06 14:14:00,32.9,19.4,30.29,SSW,209,0.0,4.0,57,0.00,,CLR,0.00,VWS V13.01,2013-01-06 18:14:00,
2013-01-06 14:15:00,32.9,18.9,30.29,SSW,210,0.0,8.0,56,0.00,,CLR,0.00,VWS V13.01,2013-01-06 18:15:00,
2013-01-06 14:17:00,32.9,18.5,30.28,SSW,213,4.0,6.0,55,0.00,,CLR,0.00,VWS V13.01,2013-01-06 18:17:00,
2013-01-06 14:19:00,32.9,18.5,30.28,SSW,213,0.0,6.0,55,0.00,,CLR,0.00,VWS V13.01,2013-01-06 18:19:00,
2013-01-06 14:20:00,32.9,18.5,30.28,SW,216,6.0,6.0,55,0.00,,CLR,0.00,VWS V13.01,2013-01-06 18:20:00,
2013-01-06 14:23:00,32.9,18.9,30.28,West,265,0.0,10.0,56,0.00,,CLR,0.00,VWS V13.01,2013-01-06 18:23:00,
2013-01-06 14:24:00,32.9,18.9,30.28,West,260,0.0,6.0,56,0.00,,CLR,0.00,VWS V13.01,2013-01-06 18:24:00,
2013-01-06 14:25:00,33.1,19.1,30.28,West,260,0.0,6.0,56,0.00,,CLR,0.00,VWS V13.01,2013-01-06 18:25:00,
2013-01-06 14:26:00,33.1,19.1,30.28,WSW,258,2.0,4.0,56,0.00,,CLR,0.00,VWS V13.01,2013-01-06 18:26:00,
2013-01-06 14:28:00,33.2,19.2,30.28,WSW,258,0.0,4.0,56,0.00,,CLR,0.00,VWS V13.01,2013-01-06 18:28:00,
2013-01-06 14:29:00,33.4,19.4,30.28,WSW,258,0.0,0.0,56,0.00,,CLR,0.00,VWS V13.01,2013-01-06 18:29:00,
2013-01-06 14:30:00,33.5,19.5,30.27,SSW,210,2.0,4.0,56,0.00,,CLR,0.00,VWS V13.01,2013-01-06 18:30:00,
2013-01-06 14:31:00,33.5,19.1,30.27,SSW,210,4.0,6.0,55,0.00,,CLR,0.00,VWS V13.01,2013-01-06 18:31:00,
2013-01-06 14:33:00,33.8,19.4,30.27,SSW,192,0.0,2.0,55,0.00,,CLR,0.00,VWS V13.01,2013-01-06 18:33:00,
2013-01-06 14:34:00,34.0,19.5,30.27,SSW,192,0.0,2.0,55,0.00,,CLR,0.00,VWS V13.01,2013-01-06 18:34:00,
2013-01-06 14:36:00,34.3,19.8,30.27,SSW,192,6.0,6.0,55,0.00,,CLR,0.00,VWS V13.01,2013-01-06 18:36:00,
2013-01-06 14:39:00,34.4,19.5,30.27,South,191,2.0,6.0,54,0.00,,CLR,0.00,VWS V13.01,2013-01-06 18:39:00,
2013-01-06 14:40:00,34.6,19.7,30.27,South,191,0.0,6.0,54,0.00,,CLR,0.00,VWS V13.01,2013-01-06 18:40:00,
2013-01-06 14:41:00,34.7,19.8,30.27,SSW,192,4.0,4.0,54,0.00,,CLR,0.00,VWS V13.01,2013-01-06 18:41:00,
2013-01-06 14:43:00,35.2,19.8,30.27,South,191,0.0,4.0,53,0.00,,CLR,0.00,VWS V13.01,2013-01-06 18:43:00,
2013-01-06 14:44:00,35.5,20.1,30.27,South,191,0.0,2.0,53,0.00,,CLR,0.00,VWS V13.01,2013-01-06 18:44:00,
2013-01-06 14:45:00,35.6,20.2,30.27,SSW,192,0.0,4.0,53,0.00,,CLR,0.00,VWS V13.01,2013-01-06 18:45:00,
2013-01-06 14:46:00,35.8,19.9,30.26,SSW,192,4.0,4.0,52,0.00,,CLR,0.00,VWS V13.01,2013-01-06 18:46:00,
2013-01-06 14:48:00,35.8,19.5,30.26,SSW,192,0.0,4.0,51,0.00,,CLR,0.00,VWS V13.01,2013-01-06 18:48:00,
2013-01-06 14:49:00,35.8,19.9,30.26,SSW,192,2.0,2.0,52,0.00,,CLR,0.00,VWS V13.01,2013-01-06 18:49:00,
2013-01-06 14:50:00,35.8,19.9,30.26,SSW,192,0.0,10.0,52,0.00,,CLR,0.00,VWS V13.01,2013-01-06 18:50:00,
2013-01-06 14:51:00,35.8,19.5,30.26,West,265,0.0,6.0,51,0.00,,CLR,0.00,VWS V13.01,2013-01-06 18:51:00,
2013-01-06 14:53:00,35.6,19.7,30.26,West,264,0.0,6.0,52,0.00,,CLR,0.00,VWS V13.01,2013-01-06 18:53:00,
2013-01-06 14:54:00,35.8,19.9,30.26,West,270,4.0,6.0,52,0.00,,CLR,0.00,VWS V13.01,2013-01-06 18:54:00,
2013-01-06 14:55:00,35.6,19.7,30.26,West,270,0.0,6.0,52,0.00,,CLR,0.00,VWS V13.01,2013-01-06 18:55:00,
2013-01-06 14:57:00,35.6,19.7,30.26,West,270,0.0,4.0,52,0.00,,CLR,0.00,VWS V13.01,2013-01-06 18:57:00,
2013-01-06 14:58:00,35.6,19.7,30.26,West,270,0.0,0.0,52,0.00,,CLR,0.00,VWS V13.01,2013-01-06 18:58:00,
2013-01-06 14:59:00,35.9,20.5,30.26,West,270,2.0,2.0,53,0.00,,CLR,0.00,VWS V13.01,2013-01-06 18:59:00,
2013-01-06 15:00:00,35.9,20.5,30.26,West,270,0.0,2.0,53,0.00,,CLR,0.00,VWS V13.01,2013-01-06 19:00:00,
2013-01-06 15:02:00,36.0,20.1,30.26,West,270,0.0,2.0,52,0.00,,CLR,0.00,VWS V13.01,2013-01-06 19:02:00,
2013-01-06 15:04:00,36.5,20.6,30.26,South,184,0.0,4.0,52,0.00,,CLR,0.00,VWS V13.01,2013-01-06 19:04:00,
2013-01-06 15:05:00,36.6,20.6,30.26,South,184,0.0,0.0,52,0.00,,CLR,0.00,VWS V13.01,2013-01-06 19:05:00,
2013-01-06 15:06:00,36.8,20.8,30.26,South,184,0.0,0.0,52,0.00,,CLR,0.00,VWS V13.01,2013-01-06 19:06:00,
2013-01-06 15:07:00,37.0,21.0,30.26,South,184,0.0,0.0,52,0.00,,CLR,0.00,VWS V13.01,2013-01-06 19:07:00,
2013-01-06 15:09:00,37.2,20.8,30.26,South,184,4.0,4.0,51,0.00,,CLR,0.00,VWS V13.01,2013-01-06 19:09:00,
2013-01-06 15:10:00,37.2,20.3,30.26,WSW,241,4.0,10.0,50,0.00,,CLR,0.00,VWS V13.01,2013-01-06 19:10:00,
2013-01-06 15:11:00,37.0,20.1,30.26,SW,217,0.0,6.0,50,0.00,,CLR,0.00,VWS V13.01,2013-01-06 19:11:00,
2013-01-06 15:13:00,37.2,20.3,30.26,SW,216,2.0,2.0,50,0.00,,CLR,0.00,VWS V13.01,2013-01-06 19:13:00,
2013-01-06 15:14:00,37.2,20.8,30.26,SW,216,6.0,6.0,51,0.00,,CLR,0.00,VWS V13.01,2013-01-06 19:14:00,
2013-01-06 15:16:00,37.3,20.4,30.24,SW,216,0.0,6.0,50,0.00,,CLR,0.00,VWS V13.01,2013-01-06 19:16:00,
2013-01-06 15:17:00,37.3,20.4,30.24,SSW,212,0.0,4.0,50,0.00,,CLR,0.00,VWS V13.01,2013-01-06 19:17:00,
2013-01-06 15:19:00,37.3,20.4,30.24,SSW,210,0.0,4.0,50,0.00,,CLR,0.00,VWS V13.01,2013-01-06 19:19:00,
2013-01-06 15:21:00,37.3,19.9,30.24,SSE,157,6.0,10.0,49,0.00,,CLR,0.00,VWS V13.01,2013-01-06 19:21:00,
2013-01-06 15:23:00,37.2,20.3,30.24,South,179,0.0,6.0,50,0.00,,CLR,0.00,VWS V13.01,2013-01-06 19:23:00,
2013-01-06 15:24:00,37.0,20.1,30.24,South,179,4.0,6.0,50,0.00,,CLR,0.00,VWS V13.01,2013-01-06 19:24:00,
2013-01-06 15:25:00,37.0,20.1,30.24,SW,236,4.0,6.0,50,0.00,,CLR,0.00,VWS V13.01,2013-01-06 19:25:00,
2013-01-06 15:27:00,36.9,20.0,30.24,SW,236,0.0,6.0,50,0.00,,CLR,0.00,VWS V13.01,2013-01-06 19:27:00,
2013-01-06 15:28:00,36.8,20.4,30.24,SW,236,4.0,4.0,51,0.00,,CLR,0.00,VWS V13.01,2013-01-06 19:28:00,
2013-01-06 15:29:00,36.8,20.4,30.24,SW,236,0.0,4.0,51,0.00,,CLR,0.00,VWS V13.01,2013-01-06 19:29:00,
2013-01-06 15:30:00,36.6,20.2,30.24,SW,229,6.0,10.0,51,0.00,,CLR,0.00,VWS V13.01,2013-01-06 19:30:00,
2013-01-06 15:32:00,36.5,20.1,30.24,SW,223,2.0,10.0,51,0.00,,CLR,0.00,VWS V13.01,2013-01-06 19:32:00,
2013-01-06 15:33:00,36.3,19.9,30.24,SW,222,2.0,6.0,51,0.00,,CLR,0.00,VWS V13.01,2013-01-06 19:33:00,
2013-01-06 15:34:00,36.3,19.9,30.24,SW,224,8.0,8.0,51,0.00,,CLR,0.00,VWS V13.01,2013-01-06 19:34:00,
2013-01-06 15:35:00,36.2,20.3,30.24,SW,226,4.0,10.0,52,0.00,,CLR,0.00,VWS V13.01,2013-01-06 19:35:00,
2013-01-06 15:38:00,35.9,20.0,30.24,SW,226,0.0,10.0,52,0.00,,CLR,0.00,VWS V13.01,2013-01-06 19:38:00,
2013-01-06 15:39:00,35.9,20.5,30.24,SW,226,4.0,6.0,53,0.00,,CLR,0.00,VWS V13.01,2013-01-06 19:39:00,
2013-01-06 15:41:00,35.9,20.5,30.24,SW,226,0.0,6.0,53,0.00,,CLR,0.00,VWS V13.01,2013-01-06 19:41:00,
2013-01-06 15:44:00,36.0,20.5,30.24,South,169,0.0,8.0,53,0.00,,CLR,0.00,VWS V13.01,2013-01-06 19:44:00,
2013-01-06 15:46:00,36.2,20.7,30.24,South,169,0.0,2.0,53,0.00,,CLR,0.00,VWS V13.01,2013-01-06 19:46:00,
2013-01-06 15:50:00,36.5,21.0,30.24,South,174,4.0,8.0,53,0.00,,CLR,0.00,VWS V13.01,2013-01-06 19:50:00,
2013-01-06 15:53:00,36.6,21.1,30.24,South,178,18.0,18.0,53,0.00,,CLR,0.00,VWS V13.01,2013-01-06 19:53:00,
2013-01-06 15:55:00,36.6,21.1,30.24,SSE,162,10.0,18.0,53,0.00,,CLR,0.00,VWS V13.01,2013-01-06 19:55:00,
2013-01-06 15:58:00,36.6,21.1,30.24,South,175,0.0,4.0,53,0.00,,CLR,0.00,VWS V13.01,2013-01-06 19:58:00,
2013-01-06 16:00:00,36.6,21.1,30.23,SSE,155,0.0,6.0,53,0.00,,CLR,0.00,VWS V13.01,2013-01-06 20:00:00,
2013-01-06 16:04:00,36.6,20.6,30.23,SSE,165,2.0,4.0,52,0.00,,CLR,0.00,VWS V13.01,2013-01-06 20:04:00,
2013-01-06 16:06:00,36.6,21.1,30.23,SE,145,6.0,6.0,53,0.00,,CLR,0.00,VWS V13.01,2013-01-06 20:06:00,
2013-01-06 16:11:00,36.6,21.1,30.23,SSE,164,2.0,6.0,53,0.00,,CLR,0.00,VWS V13.01,2013-01-06 20:11:00,
2013-01-06 16:13:00,36.5,21.0,30.23,SSE,164,0.0,2.0,53,0.00,,CLR,0.00,VWS V13.01,2013-01-06 20:13:00,
2013-01-06 16:16:00,36.6,21.5,30.23,SE,145,0.0,14.0,54,0.00,,CLR,0.00,VWS V13.01,2013-01-06 20:16:00,
2013-01-06 16:17:00,36.6,21.5,30.23,SSE,158,2.0,4.0,54,0.00,,CLR,0.00,VWS V13.01,2013-01-06 20:17:00,
2013-01-06 16:18:00,36.6,21.5,30.23,South,175,6.0,6.0,54,0.00,,CLR,0.00,VWS V13.01,2013-01-06 20:18:00,
2013-01-06 16:22:00,36.6,21.5,30.23,South,175,4.0,12.0,54,0.00,,CLR,0.00,VWS V13.01,2013-01-06 20:22:00,
2013-01-06 16:23:00,36.6,21.5,30.23,South,169,4.0,6.0,54,0.00,,CLR,0.00,VWS V13.01,2013-01-06 20:23:00,
2013-01-06 16:27:00,36.5,21.5,30.23,South,174,0.0,8.0,54,0.00,,CLR,0.00,VWS V13.01,2013-01-06 20:27:00,
2013-01-06 16:28:00,36.6,22.0,30.23,South,174,0.0,0.0,55,0.00,,CLR,0.00,VWS V13.01,2013-01-06 20:28:00,
2013-01-06 16:29:00,36.6,22.0,30.23,South,174,4.0,4.0,55,0.00,,CLR,0.00,VWS V13.01,2013-01-06 20:29:00,
2013-01-06 16:30:00,36.8,22.6,30.24,South,179,0.0,6.0,56,0.00,,SCT055,0.00,VWS V14.01,2013-01-06 20:30:00,
2013-01-06 16:32:00,36.6,22.0,30.23,SSE,164,10.0,12.0,55,0.00,,CLR,0.00,VWS V13.01,2013-01-06 20:32:00,
2013-01-06 16:33:00,36.6,22.0,30.23,SSE,167,4.0,14.0,55,0.00,,CLR,0.00,VWS V13.01,2013-01-06 20:33:00,
2013-01-06 16:35:00,36.5,21.5,30.23,South,188,4.0,12.0,54,0.00,,CLR,0.00,VWS V13.01,2013-01-06 20:35:00,
2013-01-06 16:38:00,36.5,21.5,30.23,South,174,2.0,16.0,54,0.00,,CLR,0.00,VWS V13.01,2013-01-06 20:38:00,
2013-01-06 16:39:00,36.5,21.5,30.23,SSE,168,8.0,16.0,54,0.00,,CLR,0.00,VWS V13.01,2013-01-06 20:39:00,
2013-01-06 16:41:00,36.3,21.7,30.23,SSE,168,0.0,8.0,55,0.00,,CLR,0.00,VWS V13.01,2013-01-06 20:41:00,
2013-01-06 16:43:00,36.3,21.7,30.23,SSE,168,0.0,0.0,55,0.00,,CLR,0.00,VWS V13.01,2013-01-06 20:43:00,
2013-01-06 16:44:00,36.3,21.7,30.23,SSE,168,0.0,0.0,55,0.00,,CLR,0.00,VWS V13.01,2013-01-06 20:44:00,
2013-01-06 16:47:00,36.5,21.9,30.23,SSE,168,2.0,4.0,55,0.00,,CLR,0.00,VWS V13.01,2013-01-06 20:47:00,
2013-01-06 16:48:00,36.5,21.9,30.23,SSE,155,4.0,10.0,55,0.00,,CLR,0.00,VWS V13.01,2013-01-06 20:48:00,
2013-01-06 16:49:00,36.5,21.9,30.23,SSE,155,2.0,10.0,55,0.00,,CLR,0.00,VWS V13.01,2013-01-06 20:49:00,
2013-01-06 16:52:00,36.5,21.9,30.23,SSE,158,0.0,2.0,55,0.00,,CLR,0.00,VWS V13.01,2013-01-06 20:52:00,
2013-01-06 16:54:00,36.6,22.0,30.23,SSE,158,0.0,4.0,55,0.00,,CLR,0.00,VWS V13.01,2013-01-06 20:54:00,
2013-01-06 16:57:00,36.8,22.2,30.23,SSE,158,2.0,6.0,55,0.00,,CLR,0.00,VWS V13.01,2013-01-06 20:57:00,
2013-01-06 16:59:00,36.8,22.2,30.23,SSE,164,6.0,6.0,55,0.00,,CLR,0.00,VWS V13.01,2013-01-06 20:59:00,
2013-01-06 17:00:00,36.8,22.2,30.23,SSE,164,2.0,6.0,55,0.00,,CLR,0.00,VWS V13.01,2013-01-06 21:00:00,
2013-01-06 17:30:00,35.3,22.8,30.23,South,191,0.0,6.0,60,0.00,,SCT055,0.00,VWS V14.01,2013-01-06 21:30:00,
2013-01-06 17:31:00,36.8,22.6,30.24,South,179,0.0,6.0,56,0.00,,CLR,0.00,VWS V13.01,2013-01-06 21:31:00,
2013-01-06 18:00:00,36.3,23.0,30.24,SSE,157,6.0,10.0,58,0.00,,CLR,0.00,VWS V13.01,2013-01-06 22:00:00,
2013-01-06 18:01:00,36.3,23.0,30.23,SSE,160,6.0,10.0,58,0.00,,CLR,0.00,VWS V13.01,2013-01-06 22:01:00,
2013-01-06 18:05:00,36.2,22.9,30.23,SSW,202,0.0,12.0,58,0.00,,CLR,0.00,VWS V13.01,2013-01-06 22:05:00,
2013-01-06 18:06:00,36.2,22.9,30.23,SSW,202,4.0,6.0,58,0.00,,CLR,0.00,VWS V13.01,2013-01-06 22:06:00,
2013-01-06 18:11:00,35.9,22.6,30.23,SSE,157,0.0,2.0,58,0.00,,CLR,0.00,VWS V13.01,2013-01-06 22:11:00,
2013-01-06 18:16:00,35.8,22.5,30.24,South,175,0.0,6.0,58,0.00,,CLR,0.00,VWS V13.01,2013-01-06 22:16:00,
2013-01-06 18:17:00,35.8,22.5,30.24,South,175,0.0,4.0,58,0.00,,CLR,0.00,VWS V13.01,2013-01-06 22:17:00,
2013-01-06 18:21:00,35.6,22.7,30.24,South,182,2.0,2.0,59,0.00,,CLR,0.00,VWS V13.01,2013-01-06 22:21:00,
2013-01-06 18:23:00,35.6,22.7,30.24,South,191,0.0,6.0,59,0.00,,CLR,0.00,VWS V13.01,2013-01-06 22:23:00,
2013-01-06 18:26:00,35.5,23.0,30.24,South,191,0.0,0.0,60,0.00,,CLR,0.00,VWS V13.01,2013-01-06 22:26:00,
2013-01-06 18:27:00,35.5,23.0,30.24,South,191,0.0,0.0,60,0.00,,CLR,0.00,VWS V13.01,2013-01-06 22:27:00,
2013-01-06 18:28:00,35.5,23.0,30.24,South,191,0.0,0.0,60,0.00,,CLR,0.00,VWS V13.01,2013-01-06 22:28:00,
2013-01-06 18:30:00,32.9,22.8,30.23,South,182,0.0,6.0,66,0.00,,SCT055,0.00,VWS V14.01,2013-01-06 22:30:00,
2013-01-06 18:32:00,35.3,22.8,30.23,South,191,0.0,6.0,60,0.00,,CLR,0.00,VWS V13.01,2013-01-06 22:32:00,
2013-01-06 18:33:00,35.2,22.7,30.23,South,191,0.0,6.0,60,0.00,,CLR,0.00,VWS V13.01,2013-01-06 22:33:00,
2013-01-06 18:37:00,35.0,22.5,30.23,South,191,0.0,2.0,60,0.00,,CLR,0.00,VWS V13.01,2013-01-06 22:37:00,
2013-01-06 18:38:00,35.0,22.5,30.23,South,191,0.0,2.0,60,0.00,,CLR,0.00,VWS V13.01,2013-01-06 22:38:00,
2013-01-06 18:39:00,35.0,22.9,30.23,South,191,2.0,6.0,61,0.00,,CLR,0.00,VWS V13.01,2013-01-06 22:39:00,
2013-01-06 18:42:00,34.9,22.8,30.23,South,191,0.0,2.0,61,0.00,,CLR,0.00,VWS V13.01,2013-01-06 22:42:00,
2013-01-06 18:43:00,34.9,22.8,30.23,South,191,6.0,6.0,61,0.00,,CLR,0.00,VWS V13.01,2013-01-06 22:43:00,
2013-01-06 18:44:00,34.9,22.8,30.23,South,191,0.0,6.0,61,0.00,,CLR,0.00,VWS V13.01,2013-01-06 22:44:00,
2013-01-06 18:47:00,34.7,22.6,30.23,South,191,0.0,4.0,61,0.00,,CLR,0.00,VWS V13.01,2013-01-06 22:47:00,
2013-01-06 18:48:00,34.7,22.6,30.23,South,191,0.0,4.0,61,0.00,,CLR,0.00,VWS V13.01,2013-01-06 22:48:00,
2013-01-06 18:49:00,34.6,22.5,30.23,South,191,0.0,0.0,61,0.00,,CLR,0.00,VWS V13.01,2013-01-06 22:49:00,
2013-01-06 18:52:00,34.6,22.9,30.23,South,191,4.0,6.0,62,0.00,,CLR,0.00,VWS V13.01,2013-01-06 22:52:00,
2013-01-06 18:54:00,34.4,22.7,30.23,South,191,0.0,6.0,62,0.00,,CLR,0.00,VWS V13.01,2013-01-06 22:54:00,
2013-01-06 18:55:00,34.4,22.7,30.23,South,191,0.0,4.0,62,0.00,,CLR,0.00,VWS V13.01,2013-01-06 22:55:00,
2013-01-06 18:58:00,34.3,22.6,30.23,South,191,4.0,4.0,62,0.00,,CLR,0.00,VWS V13.01,2013-01-06 22:58:00,
2013-01-06 18:59:00,34.3,22.6,30.23,South,191,2.0,4.0,62,0.00,,CLR,0.00,VWS V13.01,2013-01-06 22:59:00,
2013-01-06 19:00:00,34.3,23.0,30.23,South,191,0.0,6.0,63,0.00,,CLR,0.00,VWS V13.01,2013-01-06 23:00:00,
2013-01-06 19:03:00,34.1,22.8,30.24,SSE,157,4.0,6.0,63,0.00,,CLR,0.00,VWS V13.01,2013-01-06 23:03:00,
2013-01-06 19:04:00,34.1,22.8,30.24,SSW,196,6.0,6.0,63,0.00,,CLR,0.00,VWS V13.01,2013-01-06 23:04:00,
2013-01-06 19:05:00,34.0,23.1,30.24,SSW,195,0.0,6.0,64,0.00,,CLR,0.00,VWS V13.01,2013-01-06 23:05:00,
2013-01-06 19:08:00,33.8,22.9,30.24,SSE,150,0.0,4.0,64,0.00,,CLR,0.00,VWS V13.01,2013-01-06 23:08:00,
2013-01-06 19:09:00,33.8,22.9,30.24,SSE,161,2.0,4.0,64,0.00,,CLR,0.00,VWS V13.01,2013-01-06 23:09:00,
2013-01-06 19:11:00,33.8,22.9,30.24,South,176,0.0,6.0,64,0.00,,CLR,0.00,VWS V13.01,2013-01-06 23:11:00,
2013-01-06 19:14:00,33.7,22.8,30.24,South,182,2.0,4.0,64,0.00,,CLR,0.00,VWS V13.01,2013-01-06 23:14:00,
2013-01-06 19:15:00,33.7,22.8,30.24,South,182,0.0,4.0,64,0.00,,CLR,0.00,VWS V13.01,2013-01-06 23:15:00,
2013-01-06 19:16:00,33.7,22.8,30.23,South,182,4.0,4.0,64,0.00,,CLR,0.00,VWS V13.01,2013-01-06 23:16:00,
2013-01-06 19:19:00,33.5,23.0,30.23,South,182,4.0,6.0,65,0.00,,CLR,0.00,VWS V13.01,2013-01-06 23:19:00,
2013-01-06 19:20:00,33.5,23.0,30.23,South,182,0.0,6.0,65,0.00,,CLR,0.00,VWS V13.01,2013-01-06 23:20:00,
2013-01-06 19:21:00,33.4,22.9,30.23,South,182,0.0,6.0,65,0.00,,CLR,0.00,VWS V13.01,2013-01-06 23:21:00,
2013-01-06 19:24:00,33.2,23.1,30.23,South,182,0.0,0.0,66,0.00,,CLR,0.00,VWS V13.01,2013-01-06 23:24:00,
2013-01-06 19:25:00,33.2,23.1,30.23,South,182,0.0,0.0,66,0.00,,CLR,0.00,VWS V13.01,2013-01-06 23:25:00,
2013-01-06 19:26:00,33.2,23.1,30.23,South,182,0.0,0.0,66,0.00,,CLR,0.00,VWS V13.01,2013-01-06 23:26:00,
2013-01-06 19:29:00,33.1,23.0,30.23,South,182,0.0,0.0,66,0.00,,CLR,0.00,VWS V13.01,2013-01-06 23:29:00,
2013-01-06 19:30:00,33.1,23.0,30.23,South,182,0.0,0.0,66,0.00,,CLR,0.00,VWS V13.01,2013-01-06 23:30:00,
2013-01-06 19:31:00,32.9,22.8,30.23,South,182,0.0,6.0,66,0.00,,CLR,0.00,VWS V13.01,2013-01-06 23:31:00,
2013-01-06 19:32:00,32.9,22.8,30.23,South,182,4.0,6.0,66,0.00,,CLR,0.00,VWS V13.01,2013-01-06 23:32:00,
2013-01-06 19:35:00,32.8,22.7,30.23,South,182,0.0,4.0,66,0.00,,CLR,0.00,VWS V13.01,2013-01-06 23:35:00,
2013-01-06 19:37:00,32.8,22.7,30.23,South,182,0.0,0.0,66,0.00,,CLR,0.00,VWS V13.01,2013-01-06 23:37:00,
2013-01-06 19:38:00,32.7,22.6,30.23,South,182,0.0,0.0,66,0.00,,CLR,0.00,VWS V13.01,2013-01-06 23:38:00,
2013-01-06 19:40:00,32.7,23.0,30.23,South,182,0.0,0.0,67,0.00,,CLR,0.00,VWS V13.01,2013-01-06 23:40:00,
2013-01-06 19:43:00,32.5,22.8,30.23,South,182,0.0,0.0,67,0.00,,CLR,0.00,VWS V13.01,2013-01-06 23:43:00,
2013-01-06 19:45:00,32.4,22.7,30.23,South,182,0.0,0.0,67,0.00,,CLR,0.00,VWS V13.01,2013-01-06 23:45:00,
2013-01-06 19:48:00,32.2,22.5,30.23,South,182,0.0,0.0,67,0.00,,CLR,0.00,VWS V13.01,2013-01-06 23:48:00,
2013-01-06 19:50:00,32.1,22.4,30.23,South,182,0.0,0.0,67,0.00,,CLR,0.00,VWS V13.01,2013-01-06 23:50:00,
2013-01-06 19:53:00,32.1,22.4,30.23,South,182,0.0,0.0,67,0.00,,CLR,0.00,VWS V13.01,2013-01-06 23:53:00,
2013-01-06 19:55:00,31.9,22.2,30.23,South,182,0.0,0.0,67,0.00,,CLR,0.00,VWS V13.01,2013-01-06 23:55:00,
2013-01-06 19:56:00,31.9,22.2,30.23,South,182,0.0,0.0,67,0.00,,CLR,0.00,VWS V13.01,2013-01-06 23:56:00,
2013-01-06 19:58:00,31.8,22.5,30.23,South,182,0.0,0.0,68,0.00,,CLR,0.00,VWS V13.01,2013-01-06 23:58:00,
2013-01-06 20:00:00,30.4,23.1,30.20,South,175,0.0,6.0,74,0.00,,SCT055,0.00,VWS V14.01,2013-01-07 00:00:00,
2013-01-06 20:01:00,31.8,22.5,30.23,South,182,0.0,0.0,68,0.00,,CLR,0.00,VWS V13.01,2013-01-07 00:01:00,
2013-01-06 20:04:00,31.5,22.2,30.23,South,181,0.0,0.0,68,0.00,,CLR,0.00,VWS V13.01,2013-01-07 00:04:00,
2013-01-06 20:05:00,31.5,22.2,30.23,South,182,0.0,0.0,68,0.00,,CLR,0.00,VWS V13.01,2013-01-07 00:05:00,
2013-01-06 20:06:00,31.5,22.5,30.23,South,182,0.0,0.0,69,0.00,,CLR,0.00,VWS V13.01,2013-01-07 00:06:00,
2013-01-06 20:07:00,31.5,22.5,30.23,South,182,0.0,0.0,69,0.00,,CLR,0.00,VWS V13.01,2013-01-07 00:07:00,
2013-01-06 20:10:00,31.3,22.3,30.23,South,182,0.0,6.0,69,0.00,,CLR,0.00,VWS V13.01,2013-01-07 00:10:00,
2013-01-06 20:11:00,31.3,22.3,30.23,South,182,0.0,6.0,69,0.00,,CLR,0.00,VWS V13.01,2013-01-07 00:11:00,
2013-01-06 20:12:00,31.3,22.3,30.23,South,182,0.0,0.0,69,0.00,,CLR,0.00,VWS V13.01,2013-01-07 00:12:00,
2013-01-06 20:15:00,31.2,22.2,30.23,South,176,0.0,0.0,69,0.00,,CLR,0.00,VWS V13.01,2013-01-07 00:15:00,
2013-01-06 20:16:00,31.0,22.4,30.22,South,176,0.0,0.0,70,0.00,,CLR,0.00,VWS V13.01,2013-01-07 00:16:00,
2013-01-06 20:17:00,31.0,22.4,30.22,South,176,0.0,0.0,70,0.00,,CLR,0.00,VWS V13.01,2013-01-07 00:17:00,
2013-01-06 20:20:00,30.9,22.3,30.22,South,172,0.0,0.0,70,0.00,,CLR,0.00,VWS V13.01,2013-01-07 00:20:00,
2013-01-06 20:21:00,30.9,22.3,30.22,South,172,0.0,0.0,70,0.00,,CLR,0.00,VWS V13.01,2013-01-07 00:21:00,
2013-01-06 20:22:00,30.9,22.3,30.22,South,172,0.0,0.0,70,0.00,,CLR,0.00,VWS V13.01,2013-01-07 00:22:00,
2013-01-06 20:25:00,30.7,22.4,30.22,South,172,0.0,0.0,71,0.00,,CLR,0.00,VWS V13.01,2013-01-07 00:25:00,
2013-01-06 20:26:00,30.7,22.4,30.22,South,172,0.0,0.0,71,0.00,,CLR,0.00,VWS V13.01,2013-01-07 00:26:00,
2013-01-06 20:27:00,30.7,22.4,30.22,South,172,0.0,0.0,71,0.00,,CLR,0.00,VWS V13.01,2013-01-07 00:27:00,
2013-01-06 20:30:00,30.3,22.7,30.19,South,179,0.0,6.0,73,0.00,,SCT055,0.00,VWS V14.01,2013-01-07 00:30:00,
2013-01-06 20:31:00,30.6,22.3,30.21,South,172,0.0,0.0,71,0.00,,CLR,0.00,VWS V13.01,2013-01-07 00:31:00,
2013-01-06 20:32:00,30.6,22.3,30.21,SSE,164,0.0,0.0,71,0.00,,CLR,0.00,VWS V13.01,2013-01-07 00:32:00,
2013-01-06 20:36:00,30.4,22.5,30.21,SSE,165,0.0,0.0,72,0.00,,CLR,0.00,VWS V13.01,2013-01-07 00:36:00,
2013-01-06 20:37:00,30.4,22.5,30.21,South,189,6.0,6.0,72,0.00,,CLR,0.00,VWS V13.01,2013-01-07 00:37:00,
2013-01-06 20:41:00,30.4,22.5,30.21,SSE,157,0.0,0.0,72,0.00,,CLR,0.00,VWS V13.01,2013-01-07 00:41:00,
2013-01-06 20:42:00,30.4,22.8,30.21,SSE,157,0.0,0.0,73,0.00,,CLR,0.00,VWS V13.01,2013-01-07 00:42:00,
2013-01-06 20:43:00,30.4,22.8,30.21,SSE,157,0.0,0.0,73,0.00,,CLR,0.00,VWS V13.01,2013-01-07 00:43:00,
2013-01-06 20:46:00,30.4,22.8,30.21,SSW,199,0.0,0.0,73,0.00,,CLR,0.00,VWS V13.01,2013-01-07 00:46:00,
2013-01-06 20:47:00,30.4,22.8,30.21,SSW,196,6.0,12.0,73,0.00,,CLR,0.00,VWS V13.01,2013-01-07 00:47:00,
2013-01-06 20:48:00,30.4,22.8,30.21,SSW,196,0.0,12.0,73,0.00,,CLR,0.00,VWS V13.01,2013-01-07 00:48:00,
2013-01-06 20:51:00,30.4,22.8,30.21,South,175,10.0,12.0,73,0.00,,CLR,0.00,VWS V13.01,2013-01-07 00:51:00,
2013-01-06 20:52:00,30.4,22.8,30.21,South,176,2.0,12.0,73,0.00,,CLR,0.00,VWS V13.01,2013-01-07 00:52:00,
2013-01-06 20:53:00,30.4,23.1,30.21,SSE,165,10.0,12.0,74,0.00,,CLR,0.00,VWS V13.01,2013-01-07 00:53:00,
2013-01-06 20:57:00,30.4,23.1,30.21,South,181,0.0,2.0,74,0.00,,CLR,0.00,VWS V13.01,2013-01-07 00:57:00,
2013-01-06 20:58:00,30.4,23.1,30.21,South,181,0.0,0.0,74,0.00,,CLR,0.00,VWS V13.01,2013-01-07 00:58:00,
2013-01-06 20:59:00,30.4,23.1,30.21,South,181,0.0,0.0,74,0.00,,CLR,0.00,VWS V13.01,2013-01-07 00:59:00,
2013-01-06 21:00:00,29.8,22.2,30.18,SE,124,0.0,8.0,73,0.00,,SCT055,0.00,VWS V14.01,2013-01-07 01:00:00,
2013-01-06 21:02:00,30.4,23.1,30.20,South,175,0.0,2.0,74,0.00,,CLR,0.00,VWS V13.01,2013-01-07 01:02:00,
2013-01-06 21:03:00,30.4,23.1,30.20,SSE,162,0.0,0.0,74,0.00,,CLR,0.00,VWS V13.01,2013-01-07 01:03:00,
2013-01-06 21:04:00,30.4,23.1,30.20,SSE,162,0.0,0.0,74,0.00,,CLR,0.00,VWS V13.01,2013-01-07 01:04:00,
2013-01-06 21:07:00,30.4,23.1,30.20,SSE,168,0.0,6.0,74,0.00,,CLR,0.00,VWS V13.01,2013-01-07 01:07:00,
2013-01-06 21:08:00,30.4,23.1,30.20,SSE,168,0.0,2.0,74,0.00,,CLR,0.00,VWS V13.01,2013-01-07 01:08:00,
2013-01-06 21:09:00,30.4,23.1,30.20,SSE,168,0.0,2.0,74,0.00,,CLR,0.00,VWS V13.01,2013-01-07 01:09:00,
2013-01-06 21:12:00,30.3,23.0,30.20,South,169,0.0,0.0,74,0.00,,CLR,0.00,VWS V13.01,2013-01-07 01:12:00,
2013-01-06 21:13:00,30.3,23.0,30.20,South,169,0.0,0.0,74,0.00,,CLR,0.00,VWS V13.01,2013-01-07 01:13:00,
2013-01-06 21:14:00,30.3,23.0,30.20,South,169,0.0,0.0,74,0.00,,CLR,0.00,VWS V13.01,2013-01-07 01:14:00,
2013-01-06 21:17:00,30.3,23.0,30.20,SSE,151,4.0,6.0,74,0.00,,CLR,0.00,VWS V13.01,2013-01-07 01:17:00,
2013-01-06 21:19:00,30.3,23.0,30.20,SSE,154,4.0,14.0,74,0.00,,CLR,0.00,VWS V13.01,2013-01-07 01:19:00,
2013-01-06 21:22:00,30.3,23.0,30.20,SSE,155,0.0,4.0,74,0.00,,CLR,0.00,VWS V13.01,2013-01-07 01:22:00,
2013-01-06 21:24:00,30.3,23.0,30.20,SSE,148,0.0,2.0,74,0.00,,CLR,0.00,VWS V13.01,2013-01-07 01:24:00,
2013-01-06 21:28:00,30.3,22.7,30.20,South,178,0.0,0.0,73,0.00,,CLR,0.00,VWS V13.01,2013-01-07 01:28:00,
2013-01-06 21:29:00,30.3,22.7,30.20,South,178,0.0,0.0,73,0.00,,CLR,0.00,VWS V13.01,2013-01-07 01:29:00,
2013-01-06 21:30:00,29.5,22.2,30.17,SSE,162,0.0,2.0,74,0.00,,SCT055,0.00,VWS V14.01,2013-01-07 01:30:00,
2013-01-06 21:33:00,30.1,22.5,30.19,South,179,0.0,0.0,73,0.00,,CLR,0.00,VWS V13.01,2013-01-07 01:33:00,
2013-01-06 21:34:00,30.3,22.7,30.19,South,179,0.0,0.0,73,0.00,,CLR,0.00,VWS V13.01,2013-01-07 01:34:00,
2013-01-06 21:38:00,30.1,22.5,30.19,South,175,6.0,10.0,73,0.00,,CLR,0.00,VWS V13.01,2013-01-07 01:38:00,
2013-01-06 21:39:00,30.1,22.5,30.19,South,175,0.0,10.0,73,0.00,,CLR,0.00,VWS V13.01,2013-01-07 01:39:00,
2013-01-06 21:40:00,30.1,22.5,30.19,South,175,0.0,10.0,73,0.00,,CLR,0.00,VWS V13.01,2013-01-07 01:40:00,
2013-01-06 21:43:00,30.1,22.5,30.19,South,186,0.0,12.0,73,0.00,,CLR,0.00,VWS V13.01,2013-01-07 01:43:00,
2013-01-06 21:45:00,30.1,22.5,30.19,South,186,0.0,10.0,73,0.00,,CLR,0.00,VWS V13.01,2013-01-07 01:45:00,
2013-01-06 21:48:00,30.0,22.4,30.18,SSE,168,0.0,4.0,73,0.00,,CLR,0.00,VWS V13.01,2013-01-07 01:48:00,
2013-01-06 21:50:00,30.0,22.4,30.18,South,171,0.0,2.0,73,0.00,,CLR,0.00,VWS V13.01,2013-01-07 01:50:00,
2013-01-06 21:54:00,29.8,22.2,30.18,South,169,0.0,12.0,73,0.00,,CLR,0.00,VWS V13.01,2013-01-07 01:54:00,
2013-01-06 21:55:00,29.8,22.2,30.18,South,169,0.0,8.0,73,0.00,,CLR,0.00,VWS V13.01,2013-01-07 01:55:00,
2013-01-06 22:00:00,29.8,22.2,30.18,South,172,0.0,8.0,73,0.00,,CLR,0.00,VWS V13.01,2013-01-07 02:00:00,
2013-01-06 22:01:00,29.8,22.2,30.18,SE,124,0.0,8.0,73,0.00,,CLR,0.00,VWS V13.01,2013-01-07 02:01:00,
2013-01-06 22:05:00,29.7,22.1,30.18,SSE,152,0.0,12.0,73,0.00,,CLR,0.00,VWS V13.01,2013-01-07 02:05:00,
2013-01-06 22:06:00,29.7,22.1,30.18,SSE,152,0.0,12.0,73,0.00,,CLR,0.00,VWS V13.01,2013-01-07 02:06:00,
2013-01-06 22:07:00,29.7,22.1,30.18,South,169,0.0,10.0,73,0.00,,CLR,0.00,VWS V13.01,2013-01-07 02:07:00,
2013-01-06 22:11:00,29.7,22.4,30.18,South,169,0.0,14.0,74,0.00,,CLR,0.00,VWS V13.01,2013-01-07 02:11:00,
2013-01-06 22:12:00,29.7,22.4,30.18,South,176,0.0,10.0,74,0.00,,CLR,0.00,VWS V13.01,2013-01-07 02:12:00,
2013-01-06 22:16:00,29.7,22.4,30.17,SSE,165,0.0,10.0,74,0.00,,CLR,0.00,VWS V13.01,2013-01-07 02:16:00,
2013-01-06 22:17:00,29.7,22.4,30.17,South,186,0.0,10.0,74,0.00,,CLR,0.00,VWS V13.01,2013-01-07 02:17:00,
2013-01-06 22:21:00,29.5,22.2,30.17,South,169,4.0,20.0,74,0.00,,CLR,0.00,VWS V13.01,2013-01-07 02:21:00,
2013-01-06 22:22:00,29.5,22.2,30.17,South,172,4.0,20.0,74,0.00,,CLR,0.00,VWS V13.01,2013-01-07 02:22:00,
2013-01-06 22:23:00,29.5,22.2,30.17,South,176,12.0,20.0,74,0.00,,CLR,0.00,VWS V13.01,2013-01-07 02:23:00,
2013-01-06 22:27:00,29.5,22.2,30.17,South,174,4.0,10.0,74,0.00,,CLR,0.00,VWS V13.01,2013-01-07 02:27:00,
2013-01-06 22:28:00,29.5,22.2,30.17,SSE,158,6.0,8.0,74,0.00,,CLR,0.00,VWS V13.01,2013-01-07 02:28:00,
2013-01-06 22:30:00,29.1,21.2,30.14,South,174,0.0,6.0,72,0.00,,SCT055,0.00,VWS V14.01,2013-01-07 02:30:00,
2013-01-06 22:32:00,29.5,22.2,30.17,SSE,162,0.0,0.0,74,0.00,,CLR,0.00,VWS V13.01,2013-01-07 02:32:00,
2013-01-06 22:33:00,29.4,22.1,30.17,South,181,2.0,12.0,74,0.00,,CLR,0.00,VWS V13.01,2013-01-07 02:33:00,
2013-01-06 22:37:00,29.5,22.2,30.17,South,181,10.0,10.0,74,0.00,,CLR,0.00,VWS V13.01,2013-01-07 02:37:00,
2013-01-06 22:38:00,29.4,22.1,30.17,SE,143,0.0,10.0,74,0.00,,CLR,0.00,VWS V13.01,2013-01-07 02:38:00,
2013-01-06 22:42:00,29.4,22.1,30.17,SSE,154,10.0,14.0,74,0.00,,CLR,0.00,VWS V13.01,2013-01-07 02:42:00,
2013-01-06 22:43:00,29.4,22.1,30.17,SSE,165,0.0,14.0,74,0.00,,CLR,0.00,VWS V13.01,2013-01-07 02:43:00,
2013-01-06 22:44:00,29.4,22.1,30.17,SSE,168,0.0,14.0,74,0.00,,CLR,0.00,VWS V13.01,2013-01-07 02:44:00,
2013-01-06 22:47:00,29.3,22.1,30.17,SSE,150,20.0,20.0,74,0.00,,CLR,0.00,VWS V13.01,2013-01-07 02:47:00,
2013-01-06 22:48:00,29.4,22.1,30.17,South,169,6.0,20.0,74,0.00,,CLR,0.00,VWS V13.01,2013-01-07 02:48:00,
2013-01-06 22:49:00,29.4,22.1,30.17,South,171,0.0,20.0,74,0.00,,CLR,0.00,VWS V13.01,2013-01-07 02:49:00,
2013-01-06 22:52:00,29.4,21.8,30.17,SSE,154,4.0,12.0,73,0.00,,CLR,0.00,VWS V13.01,2013-01-07 02:52:00,
2013-01-06 22:53:00,29.4,21.8,30.17,South,186,0.0,12.0,73,0.00,,CLR,0.00,VWS V13.01,2013-01-07 02:53:00,
2013-01-06 22:54:00,29.4,21.8,30.17,SSE,148,2.0,10.0,73,0.00,,CLR,0.00,VWS V13.01,2013-01-07 02:54:00,
2013-01-06 22:57:00,29.3,21.7,30.17,SSW,196,0.0,8.0,73,0.00,,CLR,0.00,VWS V13.01,2013-01-07 02:57:00,
2013-01-06 22:58:00,29.4,21.8,30.17,SSW,196,4.0,4.0,73,0.00,,CLR,0.00,VWS V13.01,2013-01-07 02:58:00,
2013-01-06 22:59:00,29.3,21.7,30.17,SSW,196,0.0,4.0,73,0.00,,CLR,0.00,VWS V13.01,2013-01-07 02:59:00,
2013-01-06 23:00:00,29.7,21.8,30.13,South,181,6.0,16.0,72,0.00,,SCT055,0.00,VWS V14.01,2013-01-07 03:00:00,
2013-01-06 23:02:00,29.3,21.7,30.16,South,189,4.0,16.0,73,0.00,,CLR,0.00,VWS V13.01,2013-01-07 03:02:00,
2013-01-06 23:03:00,29.3,21.7,30.16,South,191,0.0,8.0,73,0.00,,CLR,0.00,VWS V13.01,2013-01-07 03:03:00,
2013-01-06 23:04:00,29.3,21.7,30.16,South,191,2.0,8.0,73,0.00,,CLR,0.00,VWS V13.01,2013-01-07 03:04:00,
2013-01-06 23:07:00,29.3,21.7,30.16,South,191,0.0,4.0,73,0.00,,CLR,0.00,VWS V13.01,2013-01-07 03:07:00,
2013-01-06 23:08:00,29.3,21.7,30.16,South,191,0.0,4.0,73,0.00,,CLR,0.00,VWS V13.01,2013-01-07 03:08:00,
2013-01-06 23:09:00,29.3,21.7,30.16,SSE,162,0.0,6.0,73,0.00,,CLR,0.00,VWS V13.01,2013-01-07 03:09:00,
2013-01-06 23:10:00,29.3,21.7,30.16,SW,217,6.0,14.0,73,0.00,,CLR,0.00,VWS V13.01,2013-01-07 03:10:00,
2013-01-06 23:12:00,29.3,21.4,30.16,SSE,167,0.0,10.0,72,0.00,,CLR,0.00,VWS V13.01,2013-01-07 03:12:00,
2013-01-06 23:13:00,29.1,21.2,30.16,SSE,168,2.0,10.0,72,0.00,,CLR,0.00,VWS V13.01,2013-01-07 03:13:00,
2013-01-06 23:14:00,29.3,21.4,30.16,South,179,0.0,10.0,72,0.00,,CLR,0.00,VWS V13.01,2013-01-07 03:14:00,
2013-01-06 23:15:00,29.1,21.2,30.16,SSE,161,0.0,10.0,72,0.00,,CLR,0.00,VWS V13.01,2013-01-07 03:15:00,
2013-01-06 23:17:00,29.1,21.2,30.15,SW,215,10.0,10.0,72,0.00,,CLR,0.00,VWS V13.01,2013-01-07 03:17:00,
2013-01-06 23:18:00,29.1,21.2,30.15,SSW,203,14.0,14.0,72,0.00,,CLR,0.00,VWS V13.01,2013-01-07 03:18:00,
2013-01-06 23:19:00,29.1,21.2,30.15,South,181,0.0,14.0,72,0.00,,CLR,0.00,VWS V13.01,2013-01-07 03:19:00,
2013-01-06 23:20:00,29.1,21.2,30.15,South,175,0.0,10.0,72,0.00,,CLR,0.00,VWS V13.01,2013-01-07 03:20:00,
2013-01-06 23:23:00,29.1,21.2,30.15,SSE,165,2.0,6.0,72,0.00,,CLR,0.00,VWS V13.01,2013-01-07 03:23:00,
2013-01-06 23:24:00,29.1,21.2,30.15,SSE,165,0.0,4.0,72,0.00,,CLR,0.00,VWS V13.01,2013-01-07 03:24:00,
2013-01-06 23:25:00,29.1,21.2,30.15,SE,134,0.0,6.0,72,0.00,,CLR,0.00,VWS V13.01,2013-01-07 03:25:00,
2013-01-06 23:28:00,29.1,21.2,30.15,SSE,160,6.0,12.0,72,0.00,,CLR,0.00,VWS V13.01,2013-01-07 03:28:00,
2013-01-06 23:29:00,29.1,21.2,30.15,SSE,161,0.0,6.0,72,0.00,,CLR,0.00,VWS V13.01,2013-01-07 03:29:00,
2013-01-06 23:30:00,29.1,21.2,30.15,SSE,161,0.0,6.0,72,0.00,,CLR,0.00,VWS V13.01,2013-01-07 03:30:00,
2013-01-06 23:31:00,29.1,21.2,30.14,South,174,0.0,6.0,72,0.00,,CLR,0.00,VWS V13.01,2013-01-07 03:31:00,
2013-01-06 23:34:00,29.1,21.2,30.14,South,179,0.0,6.0,72,0.00,,CLR,0.00,VWS V13.01,2013-01-07 03:34:00,
2013-01-06 23:35:00,29.1,21.2,30.14,South,185,6.0,6.0,72,0.00,,CLR,0.00,VWS V13.01,2013-01-07 03:35:00,
2013-01-06 23:36:00,29.1,21.2,30.14,South,181,2.0,6.0,72,0.00,,CLR,0.00,VWS V13.01,2013-01-07 03:36:00,
2013-01-06 23:39:00,29.3,21.4,30.14,South,176,0.0,10.0,72,0.00,,CLR,0.00,VWS V13.01,2013-01-07 03:39:00,
2013-01-06 23:40:00,29.3,21.4,30.14,South,174,0.0,10.0,72,0.00,,CLR,0.00,VWS V13.01,2013-01-07 03:40:00,
2013-01-06 23:41:00,29.3,21.4,30.14,South,169,0.0,8.0,72,0.00,,CLR,0.00,VWS V13.01,2013-01-07 03:41:00,
2013-01-06 23:44:00,29.3,21.4,30.14,SSE,161,0.0,14.0,72,0.00,,CLR,0.00,VWS V13.01,2013-01-07 03:44:00,
2013-01-06 23:45:00,29.3,21.4,30.14,SSE,161,0.0,2.0,72,0.00,,CLR,0.00,VWS V13.01,2013-01-07 03:45:00,
2013-01-06 23:46:00,29.4,21.5,30.14,SE,134,6.0,6.0,72,0.00,,CLR,0.00,VWS V13.01,2013-01-07 03:46:00,
2013-01-06 23:50:00,29.4,21.5,30.14,SSW,193,0.0,12.0,72,0.00,,CLR,0.00,VWS V13.01,2013-01-07 03:50:00,
2013-01-06 23:52:00,29.4,21.5,30.14,South,191,6.0,6.0,72,0.00,,CLR,0.00,VWS V13.01,2013-01-07 03:52:00,
2013-01-06 23:55:00,29.4,21.5,30.14,South,179,6.0,12.0,72,0.00,,CLR,0.00,VWS V13.01,2013-01-07 03:55:00,
2013-01-06 23:57:00,29.5,21.6,30.14,SSE,157,8.0,14.0,72,0.00,,CLR,0.00,VWS V13.01,2013-01-07 03:57:00,